Calls for Service

Disclaimer: This information is not intended to be used as official crime data. This program does not provide information about all crimes, and excludes specific incidents such as sexual assaults and child abuse. The City of Conway Police Department makes every effort to produce and publish current and accurate information. No warranties, expressed or implied, are provided for the data herein, its use, or its interpretation. The services provided are for informational purposes only and should not be relied on for any type of legal action.

Loading calls...
Showing calls from previous 10 days
Call Number Case Number Address Call Time Incident Type
17-0704931 1500 HARKRIDER ST 2017-07-27 02:09:21.150 AGENCY ASSIST
17-0704930 1301 PADGETT RD 2017-07-27 01:43:07.473 CHECKING VEHICLE
17-0704928 2235 E OAK ST 2017-07-27 01:27:26.380 ALARM
17-0704927 400 FARRIS RD 2017-07-27 01:18:44.073 SUSPICIOUS PERSON
17-0704926 1030 SKYLINE DR 2017-07-27 00:48:34.263 CHECKING PERSON
17-0704924 17-08579 1010 MAIN ST 2017-07-27 00:02:23.253 DISTURBANCE
17-0704923 3070 PEBBLE BEACH DR 2017-07-26 23:46:25.023 SUSPICIOUS ACTIVITY
17-0704922 500 ELSINGER BLVD 2017-07-26 23:38:29.843 SUSPICIOUS PERSON
17-0704921 2420 BROADVIEW AV 2017-07-26 23:34:03.870 CHECKING PERSON
17-0704920 1614 FLEMING ST 2017-07-26 23:27:35.800 BURGLARY
17-0704919 2850 STONEWOOD DR 2017-07-26 23:24:01.550 BARKING DOG COMPLAINT
17-0704918 1114 GUM ST 2017-07-26 23:21:33.077 ATTEMPT TO CONTACT
17-0704915 1902 HAIRSTON AV 2017-07-26 23:08:06.037 SUSPICIOUS VEHICLE
17-0704914 580 E DAVE WARD DR 2017-07-26 23:00:28.130 TERRORISTIC THREATENING
17-0704913 150 S HOGAN LN 2017-07-26 22:48:06.750 CHECKING VEHICLE
17-0704911 2200 MEADOWLAKE RD 2017-07-26 22:32:15.100 SUSPICIOUS ACTIVITY
17-0704909 2200 SUGAR CREEK DR 2017-07-26 22:14:27.583 LOUD NOISE-MUSIC
17-0704907 375 E OAK ST 2017-07-26 22:07:11.087 CHECKING PERSON
17-0704906 17-08576 500 SOUTH GERMAN LN 2017-07-26 21:51:41.690 MISDEMEANOR WARRANT SERVICE
17-0704905 17-08577 1895 E OAK ST 2017-07-26 21:45:43.307 ROBBERY
17-0704904 4675 OLD MORRILTON HWY 2017-07-26 21:39:25.647 ATTEMPT TO CONTACT
17-0704903 801 HOGAN LN 2017-07-26 21:34:13.343 STALKING
17-0704902 1501 HARKRIDER ST 2017-07-26 21:34:00.667 CHECKING PERSON
17-0704899 211 GRIFFITH ST 2017-07-26 21:15:46.740 911 HANGUP CALL
17-0704897 3200 WALKING TRAIL 2017-07-26 21:03:36.353 STALLED VEHICLE
17-0704896 557 FACTORY ST 2017-07-26 20:58:38.163 CIVIL STAND BY
17-0704892 1740 POINSETTIA DR 2017-07-26 20:21:20.350 SUSPICIOUS VEHICLE
17-0704891 475 ROBINS ST 2017-07-26 20:20:32.053 SUSPICIOUS PERSON
17-0704889 501 ELSINGER BLVD 2017-07-26 19:47:04.330 LOST PROPERTY
17-0704888 1601 S DONAGHEY AV 2017-07-26 19:45:31.457 SUSPICIOUS ACTIVITY
17-0704887 2505 W SIMMS ST 2017-07-26 19:42:52.137 SUSPICIOUS PERSON
17-0704885 4625 VALIANT DR 2017-07-26 19:31:31.510 ATTEMPT TO CONTACT
17-0704884 17-08573 325 MILL ST 2017-07-26 18:59:23.300 SHOTS FIRED
17-0704883 17-08571 1 TUCKER CREEK RD 2017-07-26 18:43:51.943 ACCIDENT - PROPERTY DAMAGE
17-0704882 1701 SALEM RD 2017-07-26 18:43:17.733 ACCIDENT - PROPERTY DAMAGE
17-0704881 475 ROBINS ST 2017-07-26 18:35:57.967 TERRORISTIC THREATENING
17-0704880 3020 WESTOVER DR 2017-07-26 18:34:26.667 UNKNOWN TROUBLE
17-0704877 17-08572 2155 MAPLEWOOD DR 2017-07-26 18:14:36.560 PROPERTY DAMAGE
17-0704876 1405 MONTANA DR 2017-07-26 18:13:30.470 SUSPICIOUS ACTIVITY
17-0704874 461 HARKRIDER ST 2017-07-26 18:01:59.323 TRAFFIC PROBLEM-CONTROL
17-0704873 48 SHADY VALLEY DR 2017-07-26 17:48:29.757 ALARM
17-0704872 1215 E OAK ST 2017-07-26 17:38:31.960 ALARM
17-0704871 2345 LINDA DR 2017-07-26 17:31:20.847 HARASSING COMMUNICATIONS
17-0704870 3945 LEDBETTER DR 2017-07-26 17:25:54.343 HARASSMENT
17-0704868 17-08567 1200 E DAVE WARD DR 2017-07-26 17:19:43.583 ACCIDENT - PERSONAL INJURY
17-0704867 1012 E OAK ST 2017-07-26 17:15:50.117 VEHICLE TOW
17-0704863 500 SOUTH GERMAN LN 2017-07-26 16:52:34.557 FELONY WARRANT SERVICE
17-0704862 17-08569 1750 POINSETTIA DR 2017-07-26 16:49:08.757 DOMESTIC DISTURBANCE
17-0704861 607 SOUTH GERMAN LN 2017-07-26 16:48:06.337 CHECKING PERSON
17-0704860 710 S HARKRIDER DR 2017-07-26 16:48:00.257 ATTEMPT TO CONTACT
17-0704859 1710 S AMITY RD 2017-07-26 16:38:57.077 ALARM
17-0704858 1701 DAVE WARD DR 2017-07-26 16:38:42.127 ATTEMPT TO CONTACT
17-0704857 2340 MEDLOCK LN 2017-07-26 16:37:58.057 ALARM
17-0704856 1220 CLIFTON ST 2017-07-26 16:35:08.620 ATTEMPT TO CONTACT
17-0704853 17-08566 1501 COLLEGE AV 2017-07-26 16:15:57.090 ACCIDENT - PRIVATE PROPERTY
17-0704852 2695 DAVE WARD DR 2017-07-26 16:09:56.217 SUPPLEMENT REPORT CALL
17-0704851 1585 NEW OXFORD RD 2017-07-26 16:05:18.887 REPOSSESSION
17-0704850 1305 E OAK ST 2017-07-26 16:03:24.020 CHECK ON THE WELFARE
17-0704848 17-08565 150 E SIEBENMORGEN RD 2017-07-26 16:03:00.380 HARASSMENT
17-0704847 2730 DAVE WARD DR 2017-07-26 16:00:21.760 HARASSING COMMUNICATIONS
17-0704845 1012 E OAK ST 2017-07-26 15:48:44.803 ABANDONED VEHICLE
17-0704843 17-08563 2425 SANDERS ST 2017-07-26 15:26:56.560 PROPERTY DAMAGE
17-0704837 601 DAVE WARD DR 2017-07-26 15:09:47.057 STALLED VEHICLE
17-0704836 17-08560 1701 STURGIS RD 2017-07-26 15:09:14.283 ACCIDENT - PRIVATE PROPERTY
17-0704835 1405 ROBINS ST 2017-07-26 15:02:58.990 RECKLESS DRIVER
17-0704834 1500 MUSEUM RD 2017-07-26 14:54:06.133 AGENCY ASSIST
17-0704832 17-08562 1155 LISA LN 2017-07-26 14:37:40.753 THEFT OF PROPERTY
17-0704830 475 ROBINS ST 2017-07-26 14:27:45.663 AGENCY ASSIST
17-0704829 17-08559 3501 COLLEGE AV 2017-07-26 14:27:15.267 HARASSING COMMUNICATIONS
17-0704826 1919 MARTIN ST 2017-07-26 14:11:33.973 ATTEMPT TO CONTACT
17-0704825 3250 JW AND PAT BROWN BLVD 2017-07-26 14:06:17.343 CHECKING VEHICLE
17-0704823 17-08558 905 SKYLINE DR 2017-07-26 13:59:36.093 ACCIDENT - HIT AND RUN
17-0704822 500 SOUTH GERMAN LN 2017-07-26 13:57:37.490 MISDEMEANOR WARRANT SERVICE
17-0704819 1803 MEADOWLAKE RD 2017-07-26 13:35:36.040 CHECK ON THE WELFARE
17-0704818 855 SALEM RD 2017-07-26 13:33:05.403 ENDANGERING WELFARE OF MINOR
17-0704817 867 FENDLEY DR 2017-07-26 13:27:38.293 TERRORISTIC THREATENING
17-0704815 1155 SKYLINE DR 2017-07-26 13:03:59.807 SUPPLEMENT REPORT CALL
17-0704811 17-08557 2350 SANDERS ST 2017-07-26 12:47:45.117 SUSPICIOUS ACTIVITY
17-0704807 17-08556 2603 DAVE WARD DR 2017-07-26 12:32:04.567 NEGLECT
17-0704805 17-08554 607 OAK ST 2017-07-26 12:20:35.423 ACCIDENT - PRIVATE PROPERTY
17-0704804 17-08555 25 NABCO DR 2017-07-26 12:19:30.090 FORGERY
17-0704800 420 OAK ST 2017-07-26 11:39:38.177 CHECK ON THE WELFARE
17-0704799 404 S HARKRIDER DR 2017-07-26 11:36:54.003 STALLED VEHICLE
17-0704797 475 ROBINS ST 2017-07-26 11:25:58.693 ATTEMPT TO CONTACT
17-0704796 120 S HARKRIDER DR 2017-07-26 11:21:57.133 ACCIDENT - PROPERTY DAMAGE
17-0704795 17-08552 2085 KEATHLEY DR 2017-07-26 11:00:15.903 PROPERTY DAMAGE
17-0704794 101 HWY 365 2017-07-26 10:54:32.717 RUNAWAY
17-0704793 500 SOUTH GERMAN LN 2017-07-26 10:52:30.457 MISDEMEANOR WARRANT SERVICE
17-0704792 201 SKYLINE DR 2017-07-26 10:31:01.903 ATTEMPT TO CONTACT
17-0704790 1775 OLD MORRILTON HWY 2017-07-26 10:28:57.200 ACCIDENT - PROPERTY DAMAGE
17-0704788 3905 PRINCE ST 2017-07-26 10:18:55.657 CITIZEN ASSIST
17-0704786 101 OAK ST 2017-07-26 10:02:18.447 PARKING VIOLATION
17-0704780 2018 CALDWELL ST 2017-07-26 09:07:40.797 ALARM
17-0704767 605 SALEM RD 2017-07-26 07:02:48.753 ALARM
17-0704765 17-08543 2302 COLLEGE AV 2017-07-26 06:13:20.730 DISTURBANCE
17-0704764 17-08542 3060 PEBBLE BEACH DR 2017-07-26 05:36:24.563 CRIMINAL MISCHIEF
17-0704762 700 COURT ST 2017-07-26 04:33:13.613 CHECKING PERSON
17-0704761 600 S HARKRIDER DR 2017-07-26 03:58:24.370 CHECKING VEHICLE
17-0704759 2300 PRINCE ST 2017-07-26 02:28:39.970 OPEN DOOR/WINDOW/FENCE
17-0704758 17-08540 1506 DAVIS ST 2017-07-26 02:17:10.683 BURGLARY
17-0704757 1801 TYLER ST 2017-07-26 01:57:46.283 PROWLER
17-0704756 17-08539 1125 GEORGETOWN DR 2017-07-26 01:12:29.763 DOMESTIC DISTURBANCE
17-0704755 701 REEDY RD 2017-07-26 00:56:40.997 LOUD NOISE-MUSIC
17-0704754 10 LOWER RIDGE RD 2017-07-26 00:18:12.093 STALLED VEHICLE
17-0704753 850 OAK ST 2017-07-26 00:02:19.870 CHECK ON THE WELFARE
17-0704752 17-08538 221 MERRIMAN ST 2017-07-25 23:48:45.783 BATTERY REPORT
17-0704751 2000 KEATHLEY DR 2017-07-25 23:37:43.353 DOMESTIC DISTURBANCE
17-0704750 17-08537 1105 PRAIRIE ST 2017-07-25 23:31:02.237 FOUND PROPERTY
17-0704749 799 S HOGAN LN 2017-07-25 23:30:35.550 CHECK ON THE WELFARE
17-0704747 3100 IRBY DR 2017-07-25 23:23:44.733 LOUD NOISE-MUSIC
17-0704746 1701 DAVE WARD DR 2017-07-25 23:04:19.113 CIVIL STAND BY
17-0704745 1111 E OAK ST 2017-07-25 22:53:12.507 CITIZEN ASSIST
17-0704744 501 ELSINGER BLVD 2017-07-25 22:42:31.517 RECKLESS DRIVER
17-0704742 17-08536 100 BROOKSIDE DR 2017-07-25 22:14:13.890 DOMESTIC DISTURBANCE
17-0704741 1500 FAVRE LN 2017-07-25 22:00:33.107 CHECK ON THE WELFARE
17-0704740 1312 BELLEMEADE DR 2017-07-25 21:58:46.230 DOMESTIC DISTURBANCE
17-0704739 1715 HUDSON LP 2017-07-25 21:54:59.023 CHECK ON THE WELFARE
17-0704734 1800 JOHN BRYANT DR 2017-07-25 21:03:17.130 ATTEMPT TO CONTACT
17-0704733 510 SOUTH GERMAN LN 2017-07-25 20:55:08.200 HARASSMENT
17-0704731 3601 COLLEGE AV 2017-07-25 20:49:16.840 CHECK ON THE WELFARE
17-0704730 2300 HOGAN LN 2017-07-25 20:49:15.120 SUSPICIOUS PERSON
17-0704727 1302 GUERNSEY DR 2017-07-25 20:16:56.430 DOMESTIC DISTURBANCE
17-0704724 500 SOUTH GERMAN LN 2017-07-25 19:25:27.297 MISDEMEANOR WARRANT SERVICE
17-0704722 17-08532 2840 DAVE WARD DR 2017-07-25 19:09:33.940 DISTURBANCE
17-0704721 1105 S AMITY RD 2017-07-25 19:02:41.523 ACCIDENT - PROPERTY DAMAGE
17-0704720 1501 HOGAN LN 2017-07-25 19:01:40.273 RECKLESS DRIVER
17-0704719 375 E OAK ST 2017-07-25 18:54:26.477 DISTURBANCE
17-0704718 600 SALEM RD 2017-07-25 18:46:06.247 ALARM - BANK
17-0704717 201 SKYLINE DR 2017-07-25 18:31:32.300 ATTEMPT TO CONTACT
17-0704716 710 S SALEM RD 2017-07-25 18:24:56.807 RECKLESS DRIVER
17-0704715 4675 OLD MORRILTON HWY 2017-07-25 18:21:43.840 ATTEMPT TO CONTACT
17-0704713 201 SKYLINE DR 2017-07-25 18:16:32.370 ATTEMPT TO CONTACT
17-0704711 813 OAK ST 2017-07-25 17:31:16.350 ALARM - HOLD UP or PANIC
17-0704710 500 AMITY RD 2017-07-25 17:29:12.557 SHOPLIFTING
17-0704709 475 ROBINS ST 2017-07-25 17:13:37.343 ATTEMPT TO CONTACT
17-0704707 270 S ASH ST 2017-07-25 17:01:44.230 HARASSMENT
17-0704705 3680 DAVE WARD DR 2017-07-25 16:54:02.793 STALLED VEHICLE
17-0704704 955 SOUTH GERMAN LN 2017-07-25 16:53:25.013 HARASSMENT
17-0704703 707 ROBINS ST 2017-07-25 16:50:55.500 AGENCY ASSIST
17-0704702 17-08530 2101 COLLEGE AV 2017-07-25 16:47:03.633 ACCIDENT - PROPERTY DAMAGE
17-0704701 710 MILL ST 2017-07-25 16:40:36.330 TRESPASSING
17-0704700 17-08528 855 SALEM RD 2017-07-25 16:23:02.610 ACCIDENT - PRIVATE PROPERTY
17-0704699 17-08529 1120 OAK ST 2017-07-25 16:22:02.577 FRAUD
17-0704698 17-08527 908 HEATHER CIR 2017-07-25 16:11:11.380 FOUND PROPERTY
17-0704697 1850 E OAK ST 2017-07-25 16:10:07.753 VEHICLE TOW
17-0704695 17-08525 601 SPRUCE ST 2017-07-25 15:58:10.043 LOST-STOLEN LICENSE PLATE
17-0704694 17-08526 800 AMITY RD 2017-07-25 15:47:09.820 ACCIDENT - PERSONAL INJURY
17-0704693 5310 PEWTER DR 2017-07-25 15:45:51.323 BURGLARY
17-0704691 17-08524 201 SKYLINE DR 2017-07-25 15:33:56.983 ACCIDENT - FATALITY
17-0704689 201 SKYLINE DR 2017-07-25 15:07:41.937 VEHICLE TOW
17-0704686 1302 GUERNSEY DR 2017-07-25 14:42:48.707 DOMESTIC DISTURBANCE
17-0704685 2200 ADA AV 2017-07-25 14:37:37.573 REPOSSESSION
17-0704684 3099 SALEM RD 2017-07-25 14:32:31.070 CHECK ON THE WELFARE
17-0704681 17-08522 475 ROBINS ST 2017-07-25 14:23:20.130 CIVIL MATTER
17-0704679 1155 LISA LN 2017-07-25 14:17:42.657 THEFT OF VEHICLE
17-0704678 401 2ND ST 2017-07-25 14:13:31.407 UNKNOWN TROUBLE
17-0704677 17-08520 1001 FRONT ST 2017-07-25 14:11:45.980 FRAUD
17-0704674 1120 GEORGETOWN DR 2017-07-25 13:48:43.850 ATTEMPT TO CONTACT
17-0704672 17-08519 1421 MIDDLE RD 2017-07-25 13:46:36.630 BATTERY REPORT
17-0704671 17-08518 1600 WASHINGTON AV 2017-07-25 13:41:41.713 ACCIDENT - PRIVATE PROPERTY
17-0704670 715 FAIRVIEW ST 2017-07-25 13:40:14.307 DOMESTIC DISTURBANCE
17-0704663 17-08515 655 ELSINGER BLVD 2017-07-25 13:00:12.030 ACCIDENT - PRIVATE PROPERTY
17-0704661 1665 JACKSON DR 2017-07-25 12:52:10.823 ALARM
17-0704660 724 HOGAN LN 2017-07-25 12:48:42.600 THEFT OF PROPERTY
17-0704658 800 S DONAGHEY AV 2017-07-25 12:42:23.430 TRAFFIC PROBLEM-CONTROL
17-0704654 17-08523 500 SOUTH GERMAN LN 2017-07-25 12:14:16.393 MISDEMEANOR WARRANT SERVICE
17-0704653 1420 BLUSTERY WAY 2017-07-25 12:13:59.677 ALARM - HOLD UP or PANIC
17-0704652 17-08514 1850 S SALEM RD 2017-07-25 12:04:42.640 ACCIDENT - PRIVATE PROPERTY
17-0704651 300 HARKRIDER ST 2017-07-25 12:00:58.010 ENDANGERING WELFARE OF MINOR
17-0704650 1125 S HARKRIDER DR 2017-07-25 11:57:33.670 ATTEMPT TO CONTACT
17-0704649 424 E 6TH ST 2017-07-25 11:54:19.797 ATTEMPT TO CONTACT
17-0704648 545 E DAVE WARD DR 2017-07-25 11:46:08.643 RECKLESS DRIVER
17-0704646 17-08512 1125 S HARKRIDER DR 2017-07-25 11:30:11.057 MISDEMEANOR WARRANT SERVICE
17-0704645 725 2ND AV 2017-07-25 11:30:10.137 DISTURBANCE
17-0704643 801 SALEM RD 2017-07-25 11:16:21.570 STALLED VEHICLE
17-0704638 10 HAWTHORNE DR 2017-07-25 10:53:41.913 ALARM
17-0704635 1710 HAIRSTON AV 2017-07-25 10:41:56.533 FOUND PROPERTY
17-0704633 17-08511 3115 PEBBLE BEACH DR 2017-07-25 10:18:56.583 ACCIDENT - PRIVATE PROPERTY
17-0704632 1120 OAK ST 2017-07-25 10:09:36.657 HARASSING COMMUNICATIONS
17-0704631 17-08516 1001 MCNUTT RD 2017-07-25 09:55:08.490 ATTEMPT TO CONTACT
17-0704630 2425 DAVE WARD DR 2017-07-25 09:49:10.433 DISTURBANCE
17-0704627 811 E OAK ST 2017-07-25 09:24:34.247 CHECKING PERSON
17-0704626 17-08509 1155 SKYLINE DR 2017-07-25 09:18:25.720 THEFT OF PROPERTY
17-0704619 1325 TRELLIS WAY 2017-07-25 08:58:09.483 ATTEMPT TO CONTACT
17-0704618 1913 TYLER ST 2017-07-25 08:54:39.877 SUPPLEMENT REPORT CALL
17-0704617 800 S DONAGHEY AV 2017-07-25 08:48:50.420 STALLED VEHICLE
17-0704614 1060 S AMITY RD 2017-07-25 08:09:40.667 CHECK ON THE WELFARE
17-0704613 17-08508 1632 DONAGHEY AV 2017-07-25 08:03:14.367 FOUND PROPERTY
17-0704612 501 ELSINGER BLVD 2017-07-25 08:00:10.240 ATTEMPT TO CONTACT
17-0704611 201 SKYLINE DR 2017-07-25 07:56:55.737 ABANDONED VEHICLE
17-0704610 17-08507 1105 SKYLINE DR 2017-07-25 07:24:40.577 DISTURBANCE
17-0704608 17-08504 600 VINE ST 2017-07-25 06:50:46.897 ACCIDENT - PROPERTY DAMAGE
17-0704607 17-08506 450 E DAVE WARD DR 2017-07-25 06:48:08.260 ACCIDENT - PROPERTY DAMAGE
17-0704606 580 E DAVE WARD DR 2017-07-25 06:10:25.840 VEHICLE TOW
17-0704605 2510 PRINCE ST 2017-07-25 05:38:22.600 ALARM - HOLD UP or PANIC
17-0704604 414 OAK ST 2017-07-25 05:33:34.040 ALARM
17-0704602 1050 ELLIS AV 2017-07-25 04:13:12.820 OPEN DOOR/WINDOW/FENCE
17-0704601 2104 LOOKOUT AV 2017-07-25 03:57:36.297 BREAKING OR ENTERING
17-0704600 17-08503 545 SKYLINE DR 2017-07-25 03:19:29.773 BATTERY REPORT
17-0704599 2900 SADDLETOP RD 2017-07-25 02:50:43.103 SUSPICIOUS VEHICLE
17-0704597 17-08501 475 ROBINS ST 2017-07-25 01:20:26.403 ATTEMPT TO CONTACT
17-0704595 1922 BRUCE ST 2017-07-25 01:02:23.807 SUSPICIOUS VEHICLE
17-0704593 2699 DONAGHEY AV 2017-07-25 00:43:05.580 STALLED VEHICLE
17-0704590 17-08499 1919 MARTIN ST 2017-07-25 00:09:58.653 CIVIL MATTER
17-0704589 17-08500 1913 TYLER ST 2017-07-25 00:06:14.803 RUNAWAY
17-0704587 402 HARKRIDER ST 2017-07-24 23:32:43.333 STALLED VEHICLE
17-0704586 1919 MARTIN ST 2017-07-24 23:15:50.627 CIVIL MATTER
17-0704584 17-08498 1710 HAIRSTON AV 2017-07-24 23:07:04.697 DISTURBANCE
17-0704581 2585 DONAGHEY AV 2017-07-24 22:18:00.060 ATTEMPT TO CONTACT
17-0704579 1835 LUCILLE ST 2017-07-24 22:06:10.560 DOMESTIC DISTURBANCE
17-0704578 835 S DONAGHEY AV 2017-07-24 21:58:30.890 VEHICLE TOW
17-0704577 17-08497 100 BROOKSIDE DR 2017-07-24 21:45:13.450 HARASSMENT
17-0704574 17-08496 1440 DAVE WARD DR 2017-07-24 21:12:56.610 INTERFERENCE WITH CUSTODY
17-0704573 655 ELSINGER BLVD 2017-07-24 21:09:09.827 INTOXICATED DRIVER
17-0704572 17-08495 2730 DAVE WARD DR 2017-07-24 21:03:50.417 HARASSING COMMUNICATIONS
17-0704571 1826 SIMMS ST 2017-07-24 20:46:05.337 CIVIL MATTER
17-0704570 232 MITCHELL ST 2017-07-24 20:37:08.853 CHECK ON THE WELFARE
17-0704569 1775 OLD MORRILTON HWY 2017-07-24 20:34:05.660 VEHICLE TOW
17-0704566 17-08492 475 ROBINS ST 2017-07-24 20:00:45.737 DOMESTIC DISTURBANCE
17-0704565 17-08491 150 E SIEBENMORGEN RD 2017-07-24 19:51:30.817 ABUSE
17-0704564 1105 PRAIRIE ST 2017-07-24 19:51:25.783 ATTEMPT TO CONTACT
17-0704563 500 SOUTH GERMAN LN 2017-07-24 19:51:05.320 ATTEMPT TO CONTACT
17-0704562 175 E OAK ST 2017-07-24 19:24:23.843 ATTEMPT TO CONTACT
17-0704561 4405 UTAH TRL 2017-07-24 19:24:06.363 ATTEMPT TO CONTACT
17-0704559 501 ELSINGER BLVD 2017-07-24 19:13:41.283 SUPPLEMENT REPORT CALL
17-0704557 600 SALEM RD 2017-07-24 19:04:17.680 ALARM
17-0704554 1919 MARTIN ST 2017-07-24 18:50:03.023 ATTEMPT TO CONTACT
17-0704553 600 SALEM RD 2017-07-24 18:33:59.837 ALARM - BANK
17-0704551 1205 E SKYLINE DR 2017-07-24 18:08:13.170 TRAFFIC PROBLEM-CONTROL
17-0704550 17-08489 2235 DAVE WARD DR 2017-07-24 18:05:18.183 FIGHT
17-0704549 813 OAK ST 2017-07-24 17:57:35.777 DISTURBANCE
17-0704548 185 S ASH ST 2017-07-24 17:54:18.703 FIGHT
17-0704547 1130 TRILLIUM DR 2017-07-24 17:47:08.973 UNAUTHORIZED USE OF MOTOR VEHICLE
17-0704546 3250 JW AND PAT BROWN BLVD 2017-07-24 17:30:42.743 ACCIDENT - PROPERTY DAMAGE
17-0704545 17-08488 3099 SALEM RD 2017-07-24 17:24:58.543 ACCIDENT - PERSONAL INJURY
17-0704544 2106 BROADVIEW AV 2017-07-24 17:23:26.363 ATTEMPT TO CONTACT
17-0704543 400 CENTRAL LANDING BLVD 2017-07-24 17:19:42.873 SUPPLEMENT REPORT CALL
17-0704542 1900 RICH SMITH LN 2017-07-24 17:18:27.580 RECKLESS DRIVER
17-0704541 400 S DONAGHEY AV 2017-07-24 17:14:04.880 INTERFERENCE WITH CUSTODY
17-0704540 1008 E OAK ST 2017-07-24 17:05:20.300 CHECK ON THE WELFARE
17-0704538 601 DAVE WARD DR 2017-07-24 17:02:17.073 RECKLESS DRIVER
17-0704537 1610 RUSHING CIR 2017-07-24 16:58:27.070 CIVIL MATTER
17-0704536 235 LOCUST AV 2017-07-24 16:54:08.507 ATTEMPT TO CONTACT
17-0704534 17-08487 2840 DAVE WARD DR 2017-07-24 16:49:33.190 DISTURBANCE
17-0704533 100 BROOKSIDE DR 2017-07-24 16:48:42.950 ATTEMPT TO CONTACT
17-0704531 911 OAK ST 2017-07-24 16:08:23.303 ALARM - HOLD UP or PANIC
17-0704528 855 S SALEM RD 2017-07-24 15:58:28.163 ATTEMPT TO CONTACT
17-0704526 820 E SIEBENMORGEN RD 2017-07-24 15:45:38.437 ALARM
17-0704524 1250 S AMITY RD 2017-07-24 15:25:06.793 ATTEMPT TO CONTACT
17-0704523 17-08484 1500 HARKRIDER ST 2017-07-24 15:20:07.133 ACCIDENT - PRIVATE PROPERTY
17-0704522 2105 NATURE TRL 2017-07-24 15:17:18.793 FOUND PROPERTY
17-0704519 1800 HOGAN LN 2017-07-24 15:04:58.540 VEHICLE TOW
17-0704518 1018 FAULKNER ST 2017-07-24 14:44:28.333 HARASSMENT
17-0704517 655 DAVE WARD DR 2017-07-24 14:40:45.447 ACCIDENT - PRIVATE PROPERTY
17-0704516 17-08477 635 DAVE WARD DR 2017-07-24 14:40:31.810 ACCIDENT - PERSONAL INJURY
17-0704514 601 ELSINGER BLVD 2017-07-24 14:36:31.050 CHECK ON THE WELFARE
17-0704512 32 LEXINGTON DR 2017-07-24 14:27:40.880 ATTEMPT TO CONTACT
17-0704511 17-08478 821 HOGAN LN 2017-07-24 14:24:29.590 CHECKING PERSON
17-0704510 901 E OAK ST 2017-07-24 14:18:03.223 RECKLESS DRIVER
17-0704508 3945 LEDBETTER DR 2017-07-24 14:06:16.587 ATTEMPT TO CONTACT
17-0704507 17-08475 1155 SKYLINE DR 2017-07-24 13:47:28.943 FRAUD
17-0704506 480 PAR FORE DR 2017-07-24 13:43:24.120 CRIMINAL MISCHIEF
17-0704504 17-08476 3960 TAILHOOK DR 2017-07-24 13:28:55.143 ATTEMPT TO CONTACT
17-0704503 2400 LANDOVER TRL 2017-07-24 13:25:49.770 FOUND PROPERTY
17-0704501 1632 DONAGHEY AV 2017-07-24 13:20:51.717 THEFT OF PROPERTY
17-0704500 17-08473 309 OAK ST 2017-07-24 13:19:41.080 CHECK ON THE WELFARE
17-0704499 17-08474 1601 HOGAN LN 2017-07-24 13:19:10.133 THEFT OF PROPERTY
17-0704498 800 EXCHANGE AV 2017-07-24 12:57:21.397 ALARM
17-0704497 17-08472 2101 PRINCE ST 2017-07-24 12:56:06.150 ACCIDENT - PROPERTY DAMAGE
17-0704496 1321 DAVIS ST 2017-07-24 12:55:42.933 ALARM
17-0704492 1900 KEATHLEY DR 2017-07-24 12:41:11.297 STALLED VEHICLE
17-0704491 17-08471 700 ELSINGER BLVD 2017-07-24 12:39:35.030 ACCIDENT - PRIVATE PROPERTY
17-0704489 855 SALEM RD 2017-07-24 12:21:48.450 ALARM
17-0704488 705 SALEM RD 2017-07-24 12:10:37.840 CHECK ON THE WELFARE
17-0704487 825 CENTER ST 2017-07-24 12:06:04.777 CIVIL MATTER
17-0704486 2805 PRINCE ST 2017-07-24 12:05:41.360 TRESPASSING
17-0704485 17-08469 501 ELSINGER BLVD 2017-07-24 11:59:19.273 SHOPLIFTING
17-0704484 17-08468 1900 E DAVE WARD DR 2017-07-24 11:56:22.933 ACCIDENT - PROPERTY DAMAGE
17-0704483 1155 SKYLINE DR 2017-07-24 11:47:02.263 SUPPLEMENT REPORT CALL
17-0704482 475 ROBINS ST 2017-07-24 11:42:28.890 SERVING SUBPOENA
17-0704481 1495 WILDFLOWER LN 2017-07-24 11:42:10.077 FRAUD
17-0704480 1600 DAVE WARD DR 2017-07-24 11:40:19.770 ALARM
17-0704479 17-08467 375 E OAK ST 2017-07-24 11:39:08.703 ACCIDENT - PROPERTY DAMAGE
17-0704478 134 HARKRIDER ST 2017-07-24 11:35:39.640 SERVING SUBPOENA
17-0704476 1709 WASHINGTON AV 2017-07-24 11:28:39.827 SERVING SUBPOENA
17-0704475 135 DAVIS ST 2017-07-24 11:25:45.480 ALARM
17-0704474 825 CENTER ST 2017-07-24 11:20:44.003 CIVIL MATTER
17-0704471 6 CEDAR HILL RD 2017-07-24 11:10:04.083 BURGLARY
17-0704470 420 6TH ST 2017-07-24 11:01:22.813 SUSPICIOUS VEHICLE
17-0704467 17-08465 1840 DONAGHEY AV 2017-07-24 10:47:20.440 BURGLARY
17-0704465 1105 PRAIRIE ST 2017-07-24 10:42:32.597 SUPPLEMENT REPORT CALL
17-0704464 2690 DONAGHEY AV 2017-07-24 10:36:51.370 FRAUD
17-0704463 145 RAMBLING BROOK DR 2017-07-24 10:36:39.537 DISTURBANCE
17-0704462 3555 COPPERWOOD CIR 2017-07-24 10:34:47.217 SERVING SUBPOENA
17-0704461 150 E OAK ST 2017-07-24 10:33:50.373 HARASSMENT
17-0704460 2170 NATURE TRL 2017-07-24 10:32:56.370 ATTEMPT TO CONTACT
17-0704457 17-08463 475 E ROBINS ST 2017-07-24 10:23:41.627 FRAUD
17-0704456 1600 DAVE WARD DR 2017-07-24 10:22:23.117 ALARM
17-0704451 799 CENTRAL LANDING BLVD 2017-07-24 10:06:27.327 TRAFFIC LIGHT PROBLEM
17-0704450 7 ROSEMOUNT DR 2017-07-24 10:06:06.220 ATTEMPT TO CONTACT
17-0704445 2855 PATRICIA LN 2017-07-24 09:20:20.153 SERVING SUBPOENA
17-0704444 401 DURHAM ST 2017-07-24 09:17:58.843 SERVING SUBPOENA
17-0704443 1931 MARTIN ST 2017-07-24 09:12:46.700 SERVING SUBPOENA
17-0704438 301 HELEN ST 2017-07-24 08:21:51.177 ATTEMPT TO CONTACT
17-0704437 633 S COUNTRY CLUB RD 2017-07-24 08:15:26.003 CITIZEN ASSIST
17-0704436 1105 SKYLINE DR 2017-07-24 07:55:39.593 ATTEMPT TO CONTACT
17-0704434 708 OAK ST 2017-07-24 07:31:15.423 ALARM
17-0704433 530 S DONAGHEY AV 2017-07-24 06:47:04.740 ATTEMPT TO CONTACT
17-0704432 1632 DONAGHEY AV 2017-07-24 06:10:42.900 SUSPICIOUS PERSON
17-0704431 1256 HAMILTON ST 2017-07-24 05:32:54.913 BURGLARY
17-0704429 300 HARKRIDER ST 2017-07-24 04:27:03.197 PROPERTY DAMAGE
17-0704427 1105 SKYLINE DR 2017-07-24 03:52:17.487 THEFT OF PROPERTY
17-0704426 2245 E OAK ST 2017-07-24 03:38:18.347 ALARM
17-0704423 17-08461 2415 BROADVIEW AV 2017-07-24 03:02:57.410 CRIMINAL MISCHIEF
17-0704421 200 S HARKRIDER DR 2017-07-24 02:05:43.537 ALARM
17-0704420 1160 FACTORY ST 2017-07-24 02:00:23.327 CHECKING BUILDING
17-0704419 7 ROSEMOUNT DR 2017-07-24 01:54:58.633 ATTEMPT TO CONTACT
17-0704418 545 SKYLINE DR 2017-07-24 01:22:51.393 SHOPLIFTING
17-0704417 2106 BROADVIEW AV 2017-07-24 01:07:56.333 PROWLER
17-0704416 2108 BROADVIEW AV 2017-07-24 00:35:49.783 TRESPASSING
17-0704415 1199 FENDLEY DR 2017-07-24 00:19:55.757 CHECKING PERSON
17-0704414 17-08460 116 S HARKRIDER DR 2017-07-24 00:06:43.327 CHECKING PERSON
17-0704413 3501 COLLEGE AV 2017-07-23 23:42:45.297 SUSPICIOUS PERSON
17-0704412 2216 LOOKOUT AV 2017-07-23 23:42:01.337 SUSPICIOUS PERSON
17-0704411 867 FENDLEY DR 2017-07-23 23:36:11.950 SHOTS FIRED
17-0704410 404 WATKINS ST 2017-07-23 23:28:11.823 LOUD NOISE-MUSIC
17-0704409 1155 SKYLINE DR 2017-07-23 23:25:30.373 ALARM
17-0704408 17-08459 1313 MCNUTT RD 2017-07-23 23:24:47.903 ACCIDENT - PROPERTY DAMAGE
17-0704405 17-08458 850 OAK ST 2017-07-23 23:00:00.397 ACCIDENT - PROPERTY DAMAGE
17-0704404 5360 TYLER ST 2017-07-23 22:19:14.813 SUSPICIOUS ACTIVITY
17-0704403 1405 DAVE WARD DR 2017-07-23 22:08:28.827 CHECK ON THE WELFARE
17-0704402 1803 MEADOWLAKE RD 2017-07-23 21:53:30.773 CHECK ON THE WELFARE
17-0704399 17-08455 400 CENTRAL LANDING BLVD 2017-07-23 21:16:34.510 ACCIDENT - PERSONAL INJURY
17-0704398 127 I40EB 2017-07-23 21:16:21.023 ACCIDENT - PROPERTY DAMAGE
17-0704397 855 SALEM RD 2017-07-23 21:15:23.487 DISTURBANCE
17-0704396 7 KENSINGTON DR 2017-07-23 20:50:12.397 SUSPICIOUS PERSON
17-0704395 605 1ST AV 2017-07-23 20:46:40.353 ARMED SUBJECT
17-0704394 2475 WASHINGTON AV 2017-07-23 20:41:28.037 SUSPICIOUS ACTIVITY
17-0704388 1150 BOB COURTWAY DR 2017-07-23 19:59:15.880 ALARM
17-0704386 17-08453 1830 DUNCAN ST 2017-07-23 19:46:09.150 TERRORISTIC THREATENING
17-0704385 4690 GRAHAM DR 2017-07-23 19:41:49.593 LOUD NOISE-MUSIC
17-0704384 1901 E DAVE WARD DR 2017-07-23 19:41:11.910 TRAFFIC LIGHT PROBLEM
17-0704383 1850 S SALEM RD 2017-07-23 19:37:12.940 SUPPLEMENT REPORT CALL
17-0704382 10 LOWER RIDGE RD 2017-07-23 19:34:13.970 SUPPLEMENT REPORT CALL
17-0704381 701 POLK ST 2017-07-23 19:28:31.560 CHECKING PERSON
17-0704380 1317 FAIRLANE DR 2017-07-23 19:00:05.270 CHECK ON THE WELFARE
17-0704379 911 OAK ST 2017-07-23 18:55:02.707 ALARM
17-0704378 10 LOWER RIDGE RD 2017-07-23 18:53:40.803 SUPPLEMENT REPORT CALL
17-0704377 1915 WASHINGTON AV 2017-07-23 18:44:44.087 TRAFFIC PROBLEM-CONTROL
17-0704376 608 OAK ST 2017-07-23 18:40:38.540 ALARM
17-0704374 911 S HARKRIDER DR 2017-07-23 18:11:04.007 RECKLESS DRIVER
17-0704373 1325 MUSEUM RD 2017-07-23 18:09:31.720 ALARM
17-0704372 201 SKYLINE DR 2017-07-23 18:08:21.130 ALARM
17-0704371 813 2ND ST 2017-07-23 18:04:23.560 BREAKING OR ENTERING
17-0704368 160 CASTLEBERRY DR 2017-07-23 17:38:13.030 ALARM
17-0704367 801 DONAGHEY AV 2017-07-23 17:35:01.960 TRAFFIC PROBLEM-CONTROL
17-0704366 809 COURT ST 2017-07-23 17:30:10.663 WEATHER RELATED CALLS-PROBLEMS
17-0704365 635 DAVE WARD DR 2017-07-23 17:29:06.580 OPEN DOOR/WINDOW/FENCE
17-0704364 2125 HARKRIDER ST 2017-07-23 17:25:20.810 ALARM
17-0704362 923 FRONT ST 2017-07-23 17:23:01.180 ALARM
17-0704360 815 NORTH CREEK DR 2017-07-23 17:18:11.767 ALARM
17-0704359 1200 E DAVE WARD DR 2017-07-23 17:15:57.670 STALLED VEHICLE
17-0704358 1750 VILLAGE COMMONS DR 2017-07-23 17:12:37.870 ALARM
17-0704357 635 DAVE WARD DR 2017-07-23 17:03:33.370 ALARM
17-0704356 17-08452 4310 ARBOR VINE DR 2017-07-23 16:59:03.727 BURGLARY
17-0704355 5600 SPENCER LAKE DR 2017-07-23 16:56:07.563 CHECKING VEHICLE
17-0704351 5235 BAY TOWN DR 2017-07-23 16:40:41.017 ALARM
17-0704350 3555 COPPERWOOD CIR 2017-07-23 16:39:30.223 SERVING SUBPOENA
17-0704348 2330 SANDERS ST 2017-07-23 16:32:02.163 SUPPLEMENT REPORT CALL
17-0704347 315 CLUB LN 2017-07-23 16:30:01.353 SERVING SUBPOENA
17-0704346 17-08449 375 E OAK ST 2017-07-23 16:27:02.120 ACCIDENT - PRIVATE PROPERTY
17-0704344 551 EQUITY AV 2017-07-23 16:23:22.400 ALARM
17-0704342 1820 S SALEM RD 2017-07-23 16:19:34.447 SERVING SUBPOENA
17-0704341 2104 HARKRIDER ST 2017-07-23 16:00:06.597 CHECK ON THE WELFARE
17-0704340 25 SANDSTONE DR 2017-07-23 15:56:05.093 CIVIL STAND BY
17-0704338 1612 SARAH CIR 2017-07-23 15:44:15.630 ALARM
17-0704337 17-08451 2585 DONAGHEY AV 2017-07-23 15:34:53.673 THEFT OF PROPERTY
17-0704336 420 OAK ST 2017-07-23 15:24:42.890 SUSPICIOUS ACTIVITY
17-0704335 850 SIMON ST 2017-07-23 15:10:21.923 ALARM
17-0704333 10 HALLOUS ST 2017-07-23 14:48:50.810 TRESPASSING
17-0704331 2302 COLLEGE AV 2017-07-23 14:37:31.253 SUPPLEMENT REPORT CALL
17-0704329 475 ROBINS ST 2017-07-23 14:26:49.133 DISCHARGING FIREWORKS
17-0704328 1155 LISA LN 2017-07-23 14:23:51.697 THEFT OF VEHICLE
17-0704324 790 ELSINGER BLVD 2017-07-23 14:05:59.797 DISTURBANCE
17-0704323 404 WESTERN AV 2017-07-23 14:02:21.063 SERVING SUBPOENA
17-0704321 1025 S DONAGHEY AV 2017-07-23 13:52:45.017 SERVING SUBPOENA
17-0704319 17-08447 501 ELSINGER BLVD 2017-07-23 13:37:11.627 FRAUD
17-0704318 1440 NORBERT CIR 2017-07-23 13:31:12.793 SERVING SUBPOENA
17-0704317 1135 CLARENCE DR 2017-07-23 13:25:21.180 SERVING SUBPOENA
17-0704316 4520 HARDWOOD DR 2017-07-23 13:23:46.117 TRESPASSING
17-0704314 1919 MARTIN ST 2017-07-23 12:55:49.233 THEFT OF IDENTITY
17-0704313 17-08446 407 FARRIS RD 2017-07-23 12:51:51.540 ASSAULT
17-0704312 17-08444 2330 SANDERS ST 2017-07-23 12:38:43.127 HARASSING COMMUNICATIONS
17-0704310 17-08445 1600 JOSH DR 2017-07-23 12:24:17.413 TRAFFIC PROBLEM-CONTROL
17-0704309 17-08442 450 SKYLINE DR 2017-07-23 12:16:51.430 ACCIDENT - PROPERTY DAMAGE
17-0704307 17-08443 2302 COLLEGE AV 2017-07-23 12:12:44.400 DISTURBANCE
17-0704302 19 DEVONSHIRE LN 2017-07-23 11:53:51.643 ATTEMPT TO CONTACT
17-0704300 17-08441 1200 DAVE WARD DR 2017-07-23 11:45:29.813 ACCIDENT - PROPERTY DAMAGE
17-0704291 17-08439 175 E OAK ST 2017-07-23 11:00:06.920 HARASSMENT
17-0704290 17-08440 2695 DAVE WARD DR 2017-07-23 10:55:46.203 BREAKING OR ENTERING
17-0704287 17-08437 1155 SKYLINE DR 2017-07-23 10:20:20.893 FRAUD
17-0704286 129 I40EB 2017-07-23 10:09:43.920 ACCIDENT - PERSONAL INJURY
17-0704285 17-08438 100 BROOKSIDE DR 2017-07-23 10:05:26.880 TRESPASSING
17-0704280 17-08436 2715 PRINCE ST 2017-07-23 09:32:11.547 ROBBERY
17-0704275 1405 LOLLIE RD 2017-07-23 09:11:17.203 PROPERTY DAMAGE
17-0704271 17-08433 705 MUSEUM RD 2017-07-23 08:27:27.823 BREAKING OR ENTERING
17-0704267 1405 LOLLIE RD 2017-07-23 08:05:30.067 CHECKING VEHICLE
17-0704256 17-08432 100 SKYLINE DR 2017-07-23 05:45:59.243 INTOXICATED DRIVER
17-0704254 11 SMOKING OAK RD 2017-07-23 03:50:07.147 PROWLER
17-0704253 4540 PRINCE ST 2017-07-23 03:40:47.593 RECKLESS DRIVER
17-0704252 2914 JOANNA DR 2017-07-23 03:18:54.813 PROWLER
17-0704251 2001 SALEM RD 2017-07-23 03:17:12.043 PURSUIT DRILL
17-0704250 2850 STONEWOOD DR 2017-07-23 03:13:49.277 BARKING DOG COMPLAINT
17-0704248 17-08431 1001 MCNUTT RD 2017-07-23 02:38:13.293 BATTERY REPORT
17-0704247 1 FLINTSTONE DR 2017-07-23 02:10:41.660 CHECKING PERSON
17-0704246 2840 DAVE WARD DR 2017-07-23 01:59:00.127 CHECKING PERSON
17-0704245 801 HOGAN LN 2017-07-23 01:58:26.533 ATTEMPT TO CONTACT
17-0704242 615 ROBINS ST 2017-07-23 01:15:21.287 CHECKING PERSON
17-0704241 17-08427 2840 DAVE WARD DR 2017-07-23 00:56:12.147 CHECKING PERSON
17-0704240 2840 DAVE WARD DR 2017-07-23 00:48:59.617 CHECKING VEHICLE
17-0704238 17-08428 145 GRAND FALLS 2017-07-23 00:14:13.680 SUSPICIOUS PERSON
17-0704237 1500 MUSEUM RD 2017-07-23 00:10:24.547 CHECKING PERSON
17-0704236 3480 IRBY DR 2017-07-23 00:07:22.563 DISCHARGING FIREWORKS
17-0704235 1000 FAULKNER ST 2017-07-22 23:54:50.353 LOUD NOISE-MUSIC
17-0704233 4535 SAWGRASS CV 2017-07-22 23:41:46.350 LOUD NOISE-MUSIC
17-0704232 58 GREGORY DR 2017-07-22 23:38:42.380 ACCIDENT - PROPERTY DAMAGE
17-0704231 1485 OLD MORRILTON HWY 2017-07-22 23:38:19.307 PROWLER
17-0704229 609 FAIRVIEW ST 2017-07-22 23:20:30.347 LOUD NOISE-MUSIC
17-0704225 17-08426 375 E OAK ST 2017-07-22 22:32:25.473 ACCIDENT - PRIVATE PROPERTY
17-0704224 4075 GABRIAL DR 2017-07-22 22:25:51.017 LOUD NOISE-MUSIC
17-0704223 1210 E OAK ST 2017-07-22 22:22:26.750 ALARM
17-0704222 17-08425 1524 WESTERN AV 2017-07-22 22:13:11.223 NEGLECT
17-0704221 5410 LOST CANYON DR 2017-07-22 22:04:08.160 CHECK ON THE WELFARE
17-0704220 100 BROOKSIDE DR 2017-07-22 21:59:54.000 UNKNOWN TROUBLE
17-0704219 1850 S SALEM RD 2017-07-22 21:58:03.510 ATTEMPT TO CONTACT
17-0704218 1 CADRON SETTLEMENT PARK RD 2017-07-22 21:57:42.067 CHECKING BUILDING
17-0704216 2099 CLEVELAND AV 2017-07-22 21:53:25.153 LOUD NOISE-MUSIC
17-0704214 1000 LINCOLN ST 2017-07-22 21:34:49.620 CHECKING VEHICLE
17-0704212 1850 S SALEM RD 2017-07-22 21:24:22.173 SUPPLEMENT REPORT CALL
17-0704211 580 E DAVE WARD DR 2017-07-22 21:05:37.650 SUSPICIOUS VEHICLE
17-0704209 17-08424 3900 DAVE WARD DR 2017-07-22 20:57:54.910 THEFT OF PROPERTY
17-0704207 725 LOCUST AV 2017-07-22 20:50:41.067 DISTURBANCE
17-0704206 204 LOCUST AV 2017-07-22 20:50:38.520 DOMESTIC DISTURBANCE
17-0704204 3700 DAVE WARD DR 2017-07-22 20:37:05.597 RECKLESS DRIVER
17-0704203 1560 S SALEM RD 2017-07-22 20:29:20.930 RECKLESS DRIVER
17-0704201 475 ROBINS ST 2017-07-22 20:16:04.423 THEFT OF PROPERTY
17-0704200 1305 DAVE WARD DR 2017-07-22 20:11:19.493 THEFT OF PROPERTY
17-0704199 1155 SKYLINE DR 2017-07-22 20:10:41.330 RECKLESS DRIVER
17-0704198 129 I40EB 2017-07-22 19:56:56.400 TRAFFIC PROBLEM-CONTROL
17-0704197 1555 EXCHANGE AV 2017-07-22 19:48:05.167 SUPPLEMENT REPORT CALL
17-0704196 375 MONROE ST 2017-07-22 19:47:33.687 THEFT OF PROPERTY
17-0704195 17-08422 10 LOWER RIDGE RD 2017-07-22 19:46:17.837 BATTERY REPORT
17-0704194 555 COUNTRY CLUB RD 2017-07-22 19:39:13.507 ALARM
17-0704193 17-08421 475 ROBINS ST 2017-07-22 19:36:04.750 DISTURBANCE
17-0704192 375 MONROE ST 2017-07-22 19:11:29.117 CIVIL STAND BY
17-0704191 125 I40EB 2017-07-22 19:02:42.583 STALLED VEHICLE
17-0704190 801 SOUTH GERMAN LN 2017-07-22 19:00:34.383 LOITERING
17-0704189 17-08420 1501 HARKRIDER ST 2017-07-22 18:57:12.210 ACCIDENT - PROPERTY DAMAGE
17-0704187 305 E OAK ST 2017-07-22 18:24:31.547 CHECK ON THE WELFARE
17-0704186 1931 MARTIN ST 2017-07-22 18:19:24.927 CHECK ON THE WELFARE
17-0704185 2260 SANDERS ST 2017-07-22 18:19:20.593 AGENCY ASSIST
17-0704183 17-08418 905 SKYLINE DR 2017-07-22 17:53:13.480 ACCIDENT - PERSONAL INJURY
17-0704182 1501 HOGAN LN 2017-07-22 17:50:45.277 CHECK ON THE WELFARE
17-0704180 17-08417 5201 TYLER ST 2017-07-22 17:16:33.093 ACCIDENT - PROPERTY DAMAGE
17-0704177 1014 HARKRIDER ST 2017-07-22 17:06:40.467 DISTURBANCE
17-0704173 375 MONROE ST 2017-07-22 16:43:30.293 CIVIL MATTER
17-0704171 17-08416 4699 PRINCE ST 2017-07-22 16:34:35.240 ASSAULT
17-0704168 2320 MAPLEWOOD DR 2017-07-22 16:22:58.373 ALARM
17-0704167 17-08414 1601 HOGAN LN 2017-07-22 16:20:14.837 ACCIDENT - PRIVATE PROPERTY
17-0704166 2050 DAVE WARD DR 2017-07-22 16:19:03.290 RECKLESS DRIVER
17-0704165 17-08415 150 SKYLINE DR 2017-07-22 16:09:41.837 SUSPICIOUS ACTIVITY
17-0704163 17-08413 1105 PRAIRIE ST 2017-07-22 15:57:42.863 FRAUD
17-0704161 17-08410 30 BRIERWOOD CIR 2017-07-22 15:24:42.147 TERRORISTIC THREATENING
17-0704160 17-08411 3800 COLLEGE AV 2017-07-22 15:21:14.830 HARASSMENT
17-0704159 17-08412 1850 S SALEM RD 2017-07-22 15:17:03.600 UNAUTHORIZED USE OF MOTOR VEHICLE
17-0704157 17-08408 2695 DAVE WARD DR 2017-07-22 15:02:11.503 LOST PROPERTY
17-0704156 1720 JOSH DR 2017-07-22 14:52:31.110 SUPPLEMENT REPORT CALL
17-0704155 17-08409 3010 SASSY RD 2017-07-22 14:49:36.217 THEFT OF PROPERTY
17-0704153 17-08407 1835 TYLER ST 2017-07-22 14:38:02.163 TRESPASSING
17-0704151 43 WHITE OAK DR 2017-07-22 14:23:25.610 ALARM
17-0704149 313 OLIVER ST 2017-07-22 14:19:04.560 INTERFERENCE WITH CUSTODY
17-0704148 17-08405 100 BROOKSIDE DR 2017-07-22 14:14:35.380 DOMESTIC DISTURBANCE
17-0704146 17-08404 1835 TYLER ST 2017-07-22 13:57:29.517 DOMESTIC DISTURBANCE
17-0704145 17-08403 125 I40EB 2017-07-22 13:46:11.533 ACCIDENT - PROPERTY DAMAGE
17-0704143 17-08419 1001 MCNUTT RD 2017-07-22 13:41:48.300 KIDNAPPING
17-0704142 990 BRONZE TRL 2017-07-22 13:32:28.340 FOUND PROPERTY
17-0704139 205 2ND ST 2017-07-22 13:08:23.990 SUPPLEMENT REPORT CALL
17-0704138 17-08402 2010 RICH SMITH LN 2017-07-22 13:08:15.083 BREAKING OR ENTERING
17-0704137 1835 TYLER ST 2017-07-22 13:08:03.893 CIVIL STAND BY
17-0704136 1825 MILESTONE DR 2017-07-22 13:03:39.703 ATTEMPT TO CONTACT
17-0704132 1835 TYLER ST 2017-07-22 12:42:05.890 DOMESTIC DISTURBANCE
17-0704128 17-08400 101 OAK ST 2017-07-22 12:19:46.250 ACCIDENT - PROPERTY DAMAGE
17-0704126 101 OAK ST 2017-07-22 12:14:22.710 SUPPLEMENT REPORT CALL
17-0704125 300 CONWAY BLVD 2017-07-22 12:12:47.750 DISTURBANCE
17-0704124 17-08401 8 WOODBRIDGE DR 2017-07-22 12:06:04.270 THEFT OF PROPERTY
17-0704123 1835 TYLER ST 2017-07-22 12:03:44.290 DOMESTIC DISTURBANCE
17-0704119 1600 DAVE WARD DR 2017-07-22 11:57:04.603 SUPPLEMENT REPORT CALL
17-0704118 1105 PRAIRIE ST 2017-07-22 11:48:18.180 ATTEMPT TO CONTACT
17-0704113 335 HOGAN LN 2017-07-22 11:08:14.447 ALARM
17-0704110 17-08399 850 S AMITY RD 2017-07-22 10:49:49.320 ACCIDENT - PROPERTY DAMAGE
17-0704108 607 OAK ST 2017-07-22 10:41:01.923 CHECK ON THE WELFARE
17-0704107 1405 S DONAGHEY AV 2017-07-22 10:35:49.080 CHECK ON THE WELFARE
17-0704104 17-08398 406 INGRAM ST 2017-07-22 10:06:38.863 DOMESTIC DISTURBANCE
17-0704102 17-08397 2029 CALDWELL ST 2017-07-22 09:51:52.733 THEFT OF PROPERTY
17-0704100 1018 FAULKNER ST 2017-07-22 09:16:57.103 ATTEMPT TO CONTACT
17-0704098 17-08395 1720 JOSH DR 2017-07-22 09:11:54.630 BURGLARY
17-0704096 17-08394 475 ROBINS ST 2017-07-22 09:04:14.313 FOUND PROPERTY
17-0704094 17-08393 2929 JOANNA DR 2017-07-22 08:36:50.987 RUNAWAY
17-0704093 17-08392 1018 FAULKNER ST 2017-07-22 08:31:32.790 HARASSMENT
17-0704092 4865 CANAL PL 2017-07-22 08:31:26.633 CIVIL STAND BY
17-0704091 127 I40EB 2017-07-22 08:26:54.723 CHECKING PERSON
17-0704089 17-08391 1740 JACKSON DR 2017-07-22 08:14:56.603 CRIMINAL MISCHIEF
17-0704082 1140 HARKRIDER ST 2017-07-22 06:45:18.833 ALARM
17-0704081 150 SKYLINE DR 2017-07-22 05:32:55.990 STALLED VEHICLE
17-0704077 1325 OLD MORRILTON HWY 2017-07-22 04:11:12.550 CHECKING PERSON
17-0704076 17-08388 1950 TORREYSON ST 2017-07-22 03:35:05.813 CHECK ON THE WELFARE
17-0704075 1565 E OAK ST 2017-07-22 03:30:26.067 CHECKING BUILDING
17-0704072 1950 TORREYSON ST 2017-07-22 02:54:12.733 INTOXICATED PERSON
17-0704068 475 ROBINS ST 2017-07-22 01:52:03.003 LOUD NOISE-MUSIC
17-0704067 604 MERRIMAN ST 2017-07-22 01:40:42.677 ALARM
17-0704066 17-08387 2840 DAVE WARD DR 2017-07-22 01:35:26.293 ROBBERY
17-0704065 2500 DAVE WARD DR 2017-07-22 01:06:14.263 INTOXICATED DRIVER
17-0704063 1410 ROBINS ST 2017-07-22 00:48:07.573 BURGLARY
17-0704062 816 E OAK ST 2017-07-22 00:46:00.750 BREAKING OR ENTERING
17-0704061 1001 MCNUTT RD 2017-07-22 00:36:47.473 AGENCY ASSIST
17-0704060 2840 DAVE WARD DR 2017-07-22 00:17:05.993 LOUD NOISE-MUSIC
17-0704059 1835 TYLER ST 2017-07-22 00:11:41.363 DOMESTIC DISTURBANCE
17-0704058 1002 E OAK ST 2017-07-22 00:07:10.263 LOUD NOISE-MUSIC
17-0704056 1775 ARDEN LN 2017-07-21 23:50:44.747 DOMESTIC DISTURBANCE
17-0704055 1825 PEARCE ST 2017-07-21 23:46:58.293 PROWLER
17-0704052 2300 HOGAN LN 2017-07-21 23:28:07.523 CHECKING PERSON
17-0704051 1010 E OAK ST 2017-07-21 23:24:13.597 HARASSING COMMUNICATIONS
17-0704050 3150 PEBBLE BEACH DR 2017-07-21 23:22:36.293 DOMESTIC DISTURBANCE
17-0704049 2017-07-21 23:17:28.430 ATTEMPT TO CONTACT
17-0704048 201 SKYLINE DR 2017-07-21 23:09:07.360 RECKLESS DRIVER
17-0704047 1 CADRON SETTLEMENT PARK RD 2017-07-21 23:08:29.670 CHECKING BUILDING
17-0704046 980 RUNWAY DR 2017-07-21 22:48:10.607 ALARM
17-0704044 17-08386 2202 LOOKOUT AV 2017-07-21 22:35:24.063 THEFT OF PROPERTY
17-0704042 235 FARRIS RD 2017-07-21 22:32:44.853 ATTEMPT TO CONTACT
17-0704041 2500 COLLEGE AV 2017-07-21 22:32:16.557 STALLED VEHICLE
17-0704039 4101 PRINCE ST 2017-07-21 22:25:56.240 INTOXICATED DRIVER
17-0704038 2017-07-21 22:23:37.667 RECOVERED VEHICLE
17-0704037 17-08385 1010 E OAK ST 2017-07-21 22:18:59.790 THEFT OF PROPERTY
17-0704036 235 FARRIS RD 2017-07-21 22:13:47.787 TRESPASSING
17-0704035 2840 DAVE WARD DR 2017-07-21 22:13:32.947 LOUD NOISE-MUSIC
17-0704034 17-08381 2730 DAVE WARD DR 2017-07-21 21:52:27.743 BURGLARY
17-0704033 501 ELSINGER BLVD 2017-07-21 21:48:56.340 CITIZEN ASSIST
17-0704032 17-08384 2400 PINNACLE RIDGE RD 2017-07-21 21:47:44.380 ACCIDENT - PROPERTY DAMAGE
17-0704031 545 E DAVE WARD DR 2017-07-21 21:44:45.560 TRESPASSING
17-0704029 17-08382 1065 CLAYTON ST 2017-07-21 21:39:10.977 TRESPASSING
17-0704027 813 OAK ST 2017-07-21 21:00:59.183 ATTEMPT TO CONTACT
17-0704026 2510 PRINCE ST 2017-07-21 20:52:58.113 DOMESTIC DISTURBANCE
17-0704025 1325 OLD MORRILTON HWY 2017-07-21 20:50:32.190 RECKLESS DRIVER
17-0704023 2840 DAVE WARD DR 2017-07-21 20:37:21.237 MINOR IN POSSESSION
17-0704021 2115 DESHA DR 2017-07-21 20:32:34.730 CITIZEN ASSIST
17-0704020 475 ROBINS ST 2017-07-21 20:30:52.903 DOMESTIC DISTURBANCE
17-0704018 17-08379 245 FARRIS RD 2017-07-21 20:26:07.830 THEFT OF PROPERTY
17-0704017 17-08380 611 COURT ST 2017-07-21 20:15:20.643 CHECKING VEHICLE
17-0704015 401 2ND ST 2017-07-21 20:08:12.950 CHECKING VEHICLE
17-0704014 17-08377 1157 WATKINS ST 2017-07-21 20:02:31.877 DOMESTIC DISTURBANCE
17-0704012 2800 WILLS CT 2017-07-21 19:46:27.617 DISCHARGING FIREWORKS
17-0704011 4675 OLD MORRILTON HWY 2017-07-21 19:45:59.220 ATTEMPT TO CONTACT
17-0704009 600 S HARKRIDER DR 2017-07-21 19:33:33.000 THEFT OF PROPERTY
17-0704008 1600 DAVE WARD DR 2017-07-21 19:31:43.760 SUPPLEMENT REPORT CALL
17-0704007 1935 SIMMS ST 2017-07-21 19:29:46.127 CHECKING BUILDING
17-0704006 2420 WHITEHALL DR 2017-07-21 19:25:18.443 ALARM
17-0704003 101 OAK ST 2017-07-21 18:50:56.780 SUPPLEMENT REPORT CALL
17-0704000 1105 PRAIRIE ST 2017-07-21 18:32:03.150 HARASSMENT
17-0703996 1600 DAVE WARD DR 2017-07-21 18:24:03.700 SUPPLEMENT REPORT CALL
17-0703995 708 OAK ST 2017-07-21 18:16:22.767 ALARM
17-0703991 17-08376 150 E SIEBENMORGEN RD 2017-07-21 17:56:20.317 ABUSE
17-0703990 1620 MIDDLE RD 2017-07-21 17:55:28.647 REPOSSESSION
17-0703989 1105 PRAIRIE ST 2017-07-21 17:49:05.427 ATTEMPT TO CONTACT
17-0703987 504 6TH ST 2017-07-21 17:27:59.707 DISTURBANCE
17-0703986 800 WALNUT ST 2017-07-21 17:08:32.630 ALARM - HOLD UP or PANIC
17-0703985 17-08375 1600 DAVE WARD DR 2017-07-21 17:06:15.993 THEFT OF PROPERTY
17-0703984 145 GRAND FALLS 2017-07-21 17:02:40.477 SUPPLEMENT REPORT CALL
17-0703981 17-08373 1505 OLD MORRILTON HWY 2017-07-21 16:27:55.883 ACCIDENT - PROPERTY DAMAGE
17-0703980 475 ROBINS ST 2017-07-21 16:24:29.550 SUPPLEMENT REPORT CALL
17-0703979 4095 PRINCE ST 2017-07-21 16:23:45.683 CITIZEN ASSIST
17-0703978 17-08374 101 OAK ST 2017-07-21 16:16:46.973 THEFT OF PROPERTY
17-0703977 1701 SALEM RD 2017-07-21 16:13:57.257 STALLED VEHICLE
17-0703976 1622 SCOTT ST 2017-07-21 16:03:54.413 CIVIL MATTER
17-0703973 17-08371 1057 HARKRIDER ST 2017-07-21 15:56:35.923 ACCIDENT - PROPERTY DAMAGE
17-0703971 17-08372 811 NORTH CREEK DR 2017-07-21 15:48:06.013 CITIZEN ASSIST
17-0703970 1405 S DONAGHEY AV 2017-07-21 15:37:47.883 CHECK ON THE WELFARE
17-0703969 1421 LINCOLN ST 2017-07-21 15:37:14.047 CIVIL MATTER
17-0703967 2730 DAVE WARD DR 2017-07-21 14:53:19.573 TRESPASSING
17-0703965 505 SALEM RD 2017-07-21 14:36:39.887 911 HANGUP CALL
17-0703963 945 SALEM RD 2017-07-21 14:29:37.270 ALARM - BANK
17-0703962 17-08365 678 ELSINGER BLVD 2017-07-21 14:21:44.623 ACCIDENT - PRIVATE PROPERTY
17-0703960 17-08368 1175 MORNINGSIDE DR 2017-07-21 14:12:24.540 NEGLECT
17-0703959 17-08367 1175 MORNINGSIDE DR 2017-07-21 14:11:48.343 ABUSE
17-0703958 17-08362 3501 COLLEGE AV 2017-07-21 14:10:39.843 ACCIDENT - PRIVATE PROPERTY
17-0703956 17-08366 475 ROBINS ST 2017-07-21 14:07:56.553 DISTURBANCE
17-0703955 1810 ANGELINE DR 2017-07-21 14:01:19.233 ATTEMPT TO CONTACT
17-0703953 99 RED OAK DR 2017-07-21 14:00:34.110 ATTEMPT TO CONTACT
17-0703951 17-08364 1105 SKYLINE DR 2017-07-21 13:46:02.913 FOUND PROPERTY
17-0703950 17-08360 1306 S DONAGHEY AV 2017-07-21 13:45:40.950 ACCIDENT - PRIVATE PROPERTY
17-0703949 17-08361 350 SALEM RD 2017-07-21 13:40:01.143 ACCIDENT - PRIVATE PROPERTY
17-0703948 1620 MIDDLE RD 2017-07-21 13:26:06.147 NEGLECT
17-0703945 17-08359 1200 E DAVE WARD DR 2017-07-21 13:07:46.737 ACCIDENT - PROPERTY DAMAGE
17-0703943 32 TIMBERLANE TRL 2017-07-21 12:49:01.727 HARASSING COMMUNICATIONS
17-0703936 17-08356 3900 DAVE WARD DR 2017-07-21 12:02:15.753 ACCIDENT - PRIVATE PROPERTY
17-0703935 17-08358 1310 ALEX ST 2017-07-21 12:01:01.163 THEFT OF PROPERTY
17-0703932 2100 DAVE WARD DR 2017-07-21 11:54:18.557 STALLED VEHICLE
17-0703931 1015 DOODLE CIR 2017-07-21 11:43:36.340 CHECK ON THE WELFARE
17-0703929 17-08355 205 2ND ST 2017-07-21 11:38:03.553 BURGLARY
17-0703927 145 GRAND FALLS 2017-07-21 11:34:21.053 SUPPLEMENT REPORT CALL
17-0703926 125 I40WB 2017-07-21 11:30:38.700 ACCIDENT - PROPERTY DAMAGE
17-0703925 835 S DONAGHEY AV 2017-07-21 11:30:19.317 VEHICLE TOW
17-0703924 1405 S DONAGHEY AV 2017-07-21 11:23:35.820 VEHICLE TOW
17-0703923 17-08357 1012 E OAK ST 2017-07-21 11:16:46.247 FOUND PROPERTY
17-0703921 17-08354 350 E OAK ST 2017-07-21 11:09:30.107 PROPERTY DAMAGE
17-0703920 4655 HAWKINS DR 2017-07-21 11:06:28.380 FOUND PROPERTY
17-0703919 17-08352 1060 HOGAN LN 2017-07-21 11:02:47.457 K9 SEARCH-REPORT
17-0703918 17-08353 1345 E OAK ST 2017-07-21 10:45:46.337 ACCIDENT - PERSONAL INJURY
17-0703917 908 E OAK ST 2017-07-21 10:38:55.200 CITIZEN ASSIST
17-0703916 37 FRANCES DR 2017-07-21 10:25:15.670 SUPPLEMENT REPORT CALL
17-0703915 17-08350 1120 EAST GERMAN LN 2017-07-21 10:22:28.757 ACCIDENT - PRIVATE PROPERTY
17-0703913 17-08349 700 LOCUST AV 2017-07-21 10:11:56.033 ACCIDENT - HIT AND RUN
17-0703906 17-08351 1502 QUAIL CREEK DR 2017-07-21 09:42:32.143 MISSING PERSON
17-0703905 645 EAST GERMAN LN 2017-07-21 09:40:38.900 CITIZEN ASSIST
17-0703901 3555 COPPERWOOD CIR 2017-07-21 09:28:25.500 SERVING SUBPOENA
17-0703900 315 CLUB LN 2017-07-21 09:20:29.113 SERVING SUBPOENA
17-0703892 1705 S SALEM RD 2017-07-21 09:06:45.733 SERVING SUBPOENA
17-0703890 1840 ROYAL DR 2017-07-21 08:57:57.840 SERVING SUBPOENA
17-0703888 2603 DAVE WARD DR 2017-07-21 08:46:53.823 CIVIL MATTER
17-0703887 885 WOODARD DR 2017-07-21 08:42:14.430 SERVING SUBPOENA
17-0703886 4535 HARDWOOD DR 2017-07-21 08:37:57.430 SERVING SUBPOENA
17-0703884 2255 LINDA DR 2017-07-21 08:30:35.800 SERVING SUBPOENA
17-0703877 1709 WASHINGTON AV 2017-07-21 08:15:15.180 SERVING SUBPOENA
17-0703876 2521 COLLEGE AV 2017-07-21 08:15:06.423 ALARM
17-0703870 1001 SALEM RD 2017-07-21 07:58:26.350 STALLED VEHICLE
17-0703868 301 COMMERCE RD 2017-07-21 07:51:33.967 ALARM
17-0703866 17-08346 450 SKYLINE DR 2017-07-21 07:30:01.590 ACCIDENT - PRIVATE PROPERTY
17-0703863 605 SALEM RD 2017-07-21 06:49:57.150 ALARM
17-0703860 1445 HOGAN LN 2017-07-21 04:31:57.270 ALARM - BANK
17-0703856 1303 MITCHELL ST 2017-07-21 02:18:32.930 KIDNAPPING
17-0703853 17-08343 500 SOUTH GERMAN LN 2017-07-21 01:28:08.270 MISDEMEANOR WARRANT SERVICE
17-0703852 1 CADRON SETTLEMENT PARK RD 2017-07-21 01:22:37.840 CHECKING VEHICLE
17-0703851 17-08344 3100 IRBY DR 2017-07-21 01:19:57.637 CHECKING VEHICLE
17-0703848 621 4TH ST 2017-07-21 01:01:17.963 BURGLARY
17-0703846 2603 DAVE WARD DR 2017-07-21 00:26:23.033 DISTURBANCE
17-0703843 1618 DAVIS ST 2017-07-21 00:04:41.717 BARKING DOG COMPLAINT
17-0703842 235 FARRIS RD 2017-07-21 00:02:12.280 DISTURBANCE
17-0703841 1555 EXCHANGE AV 2017-07-21 00:00:57.363 ANIMAL BITE
17-0703840 816 E OAK ST 2017-07-20 23:52:35.733 RECKLESS DRIVER
17-0703836 835 S DONAGHEY AV 2017-07-20 23:32:31.500 DOMESTIC DISTURBANCE
17-0703833 1501 COLLEGE AV 2017-07-20 22:48:53.680 ALARM
17-0703832 4025 IRBY DR 2017-07-20 22:37:50.043 ROAD RAGE
17-0703830 1065 CLAYTON ST 2017-07-20 22:22:56.167 LOITERING
17-0703827 2135 KRYSTAL KREEK DR 2017-07-20 22:08:43.930 REPOSSESSION
17-0703826 130 HARKRIDER ST 2017-07-20 22:06:21.050 UNKNOWN TROUBLE
17-0703823 230 OLIVER ST 2017-07-20 21:55:28.420 SUPPLEMENT REPORT CALL
17-0703822 17-08342 1161 OLD MORRILTON HWY 2017-07-20 21:45:25.707 THEFT OF SERVICES
17-0703821 2590 DONAGHEY AV 2017-07-20 21:34:51.647 SUSPICIOUS VEHICLE
17-0703820 145 GRAND FALLS 2017-07-20 21:27:43.260 BURGLARY
17-0703819 1105 PRAIRIE ST 2017-07-20 20:44:20.820 ATTEMPT TO CONTACT
17-0703818 875 SKYLINE DR 2017-07-20 20:38:39.273 CHECK ON THE WELFARE
17-0703817 2399 HOGAN LN 2017-07-20 20:34:06.830 ATTEMPT TO CONTACT
17-0703815 17-08339 3430 IRBY DR 2017-07-20 20:22:55.427 ATTEMPT TO CONTACT
17-0703814 1105 PRAIRIE ST 2017-07-20 20:04:30.663 UNAUTHORIZED USE OF MOTOR VEHICLE
17-0703810 17-08338 601 ELSINGER BLVD 2017-07-20 19:31:38.380 ACCIDENT - PRIVATE PROPERTY
17-0703809 17-08337 3900 DAVE WARD DR 2017-07-20 19:29:12.953 THEFT OF PROPERTY
17-0703808 1105 PRAIRIE ST 2017-07-20 19:24:03.660 ATTEMPT TO CONTACT
17-0703806 1218 HAMILTON ST 2017-07-20 19:07:12.250 SUSPICIOUS VEHICLE
17-0703805 1155 SKYLINE DR 2017-07-20 18:54:33.840 VEHICLE TOW
17-0703804 475 ROBINS ST 2017-07-20 18:46:44.513 CHECK ON THE WELFARE
17-0703803 17-08336 8 WOODBRIDGE DR 2017-07-20 18:45:34.290 DISTURBANCE
17-0703802 17-08335 603 OAK ST 2017-07-20 18:37:30.097 TERRORISTIC THREATENING
17-0703801 1111 E OAK ST 2017-07-20 18:25:55.923 STALLED VEHICLE
17-0703800 17-08333 545 SKYLINE DR 2017-07-20 17:57:02.010 ACCIDENT - PROPERTY DAMAGE
17-0703799 1070 COLLIER DR 2017-07-20 17:34:54.930 ALARM
17-0703797 1000 COUNTRY CLUB RD 2017-07-20 17:05:40.267 TRAFFIC PROBLEM-CONTROL
17-0703796 17-08334 825 OAK ST 2017-07-20 16:58:17.000 FRAUD
17-0703795 603 OAK ST 2017-07-20 16:54:11.050 DISTURBANCE
17-0703792 17-08332 2955 ASHLEY DR 2017-07-20 16:18:22.237 ACCIDENT - PROPERTY DAMAGE
17-0703791 1120 OAK ST 2017-07-20 16:07:22.637 HARASSING COMMUNICATIONS
17-0703790 17-08331 695 EXCHANGE AV 2017-07-20 15:58:27.583 FRAUD
17-0703789 600 SKYLINE DR 2017-07-20 15:55:48.900 TRAFFIC PROBLEM-CONTROL
17-0703788 3501 COLLEGE AV 2017-07-20 15:25:27.783 ACCIDENT - PRIVATE PROPERTY
17-0703785 17-08328 150 E OAK ST 2017-07-20 15:01:38.670 ACCIDENT - PROPERTY DAMAGE
17-0703783 225 CENTER ST 2017-07-20 14:49:48.420 ALARM
17-0703782 17-08327 816 E OAK ST 2017-07-20 14:46:08.950 FORGERY
17-0703781 504 E OAK ST 2017-07-20 14:41:39.293 TRAFFIC PROBLEM-CONTROL
17-0703780 1701 ROBINS ST 2017-07-20 14:32:29.117 SUSPICIOUS PERSON
17-0703777 810 2ND AV 2017-07-20 14:10:10.360 DOMESTIC DISTURBANCE
17-0703772 203 S CENTER ST 2017-07-20 13:55:54.853 DOMESTIC DISTURBANCE
17-0703771 17-08326 1601 S DONAGHEY AV 2017-07-20 13:46:14.620 PROPERTY DAMAGE
17-0703769 17-08324 2125 HARKRIDER ST 2017-07-20 13:39:01.360 ACCIDENT - PERSONAL INJURY
17-0703768 17-08325 1620 MIDDLE RD 2017-07-20 13:29:06.430 AGENCY ASSIST
17-0703767 1304 GUERNSEY DR 2017-07-20 13:23:50.887 ATTEMPT TO CONTACT
17-0703766 130 HARKRIDER ST 2017-07-20 13:19:03.197 ATTEMPT TO CONTACT
17-0703765 17-08323 2900 DAVE WARD DR 2017-07-20 13:07:41.170 ACCIDENT - PROPERTY DAMAGE
17-0703763 3605 GRESHAM DR 2017-07-20 12:59:24.137 SUSPICIOUS VEHICLE
17-0703760 1720 MONACO DR 2017-07-20 12:51:59.790 REPOSSESSION
17-0703759 300 S DONAGHEY AV 2017-07-20 12:39:11.140 AGENCY ASSIST
17-0703758 475 ROBINS ST 2017-07-20 12:31:42.370 AGENCY ASSIST
17-0703756 130 HARKRIDER ST 2017-07-20 12:19:04.063 ATTEMPT TO CONTACT
17-0703754 475 ROBINS ST 2017-07-20 12:08:53.763 AGENCY ASSIST
17-0703748 450 E DAVE WARD DR 2017-07-20 11:48:39.730 SUPPLEMENT REPORT CALL
17-0703741 37 FRANCES DR 2017-07-20 11:22:59.383 SUPPLEMENT REPORT CALL
17-0703739 17-08322 1018 FAULKNER ST 2017-07-20 11:15:19.690 HARASSMENT
17-0703736 1675 BEAUTYBERRY DR 2017-07-20 10:57:08.420 LOUD NOISE-MUSIC
17-0703735 3900 DAVE WARD DR 2017-07-20 10:52:40.840 STALKING
17-0703734 3350 HWY 25 N 2017-07-20 10:49:38.620 CITIZEN ASSIST
17-0703731 475 ROBINS ST 2017-07-20 10:41:48.220 DOMESTIC DISTURBANCE
17-0703730 3115 PEBBLE BEACH DR 2017-07-20 10:30:21.903 AGENCY ASSIST
17-0703729 475 ROBINS ST 2017-07-20 10:19:59.950 SERVING SUBPOENA
17-0703727 17-08320 581 HARKRIDER ST 2017-07-20 10:15:55.720 ACCIDENT - PROPERTY DAMAGE
17-0703726 475 ROBINS ST 2017-07-20 10:15:28.223 SERVING SUBPOENA
17-0703722 2117 STOUT ST 2017-07-20 09:57:06.247 ATTEMPT TO CONTACT
17-0703719 131 GRAND FALLS 2017-07-20 09:43:09.070 ATTEMPT TO CONTACT
17-0703718 855 S SALEM RD 2017-07-20 09:42:33.650 SERVING SUBPOENA
17-0703717 4920 WESTIN PARK DR 2017-07-20 09:41:49.333 SUSPICIOUS PERSON
17-0703712 3760 MARLEIGH DR 2017-07-20 09:20:21.293 SUPPLEMENT REPORT CALL
17-0703711 1330 WOODSIDE DR 2017-07-20 09:18:27.003 ALARM
17-0703710 1901 E OAK ST 2017-07-20 09:17:11.280 CHECK ON THE WELFARE
17-0703709 207 WILLOW ST 2017-07-20 09:16:43.930 SERVING SUBPOENA
17-0703707 207 WILLOW ST 2017-07-20 09:15:24.577 SERVING SUBPOENA
17-0703704 2925 PRINCE ST 2017-07-20 09:08:43.427 SUPPLEMENT REPORT CALL
17-0703701 1330 WOODSIDE DR 2017-07-20 09:02:42.623 ALARM
17-0703698 17-08318 2925 PRINCE ST 2017-07-20 08:47:36.957 TERRORISTIC THREATENING
17-0703696 821 HOGAN LN 2017-07-20 08:40:29.073 ALARM
17-0703693 930 WINGATE DR 2017-07-20 08:27:45.720 TRESPASSING
17-0703690 1204 WINFIELD ST 2017-07-20 08:16:04.820 SUSPICIOUS ACTIVITY
17-0703688 17-08317 911 S HARKRIDER DR 2017-07-20 08:10:01.383 ACCIDENT - PROPERTY DAMAGE
17-0703687 17-08315 1500 HARKRIDER ST 2017-07-20 08:08:10.283 FOUND PROPERTY
17-0703685 17-08316 901 E OAK ST 2017-07-20 08:01:45.597 ACCIDENT - PROPERTY DAMAGE
17-0703683 1815 OLD MORRILTON HWY 2017-07-20 07:57:50.280 ABANDONED VEHICLE
17-0703682 1310 CLIFTON ST 2017-07-20 07:55:48.060 FOUND PROPERTY
17-0703679 2910 ASHLEY DR 2017-07-20 07:34:46.657 DOMESTIC DISTURBANCE
17-0703678 2001 JEFFERSON AV 2017-07-20 07:28:48.497 DOMESTIC DISTURBANCE
17-0703677 1105 SKYLINE DR 2017-07-20 07:28:40.380 ATTEMPT TO CONTACT
17-0703676 1155 SKYLINE DR 2017-07-20 06:58:11.670 CHECKING VEHICLE
17-0703671 2400 MARKET PLAZA DR 2017-07-20 03:01:51.097 SHOTS FIRED
17-0703666 1445 HOGAN LN 2017-07-20 01:18:58.337 ALARM - BANK
17-0703664 1 CADRON SETTLEMENT PARK RD 2017-07-20 01:12:53.420 CHECKING VEHICLE
17-0703663 1122 MITCHELL ST 2017-07-20 01:06:41.767 LOUD NOISE-MUSIC
17-0703660 1002 E OAK ST 2017-07-20 00:43:43.963 ATTEMPT TO CONTACT
17-0703659 1202 CLIFTON ST 2017-07-20 00:29:20.533 CHECKING VEHICLE
17-0703658 1002 E OAK ST 2017-07-20 00:06:27.017 ATTEMPT TO CONTACT
17-0703657 101 OAK ST 2017-07-19 23:44:38.200 CHECKING PERSON
17-0703656 3372 PRINCE ST 2017-07-19 23:40:23.460 CHECKING VEHICLE
17-0703655 1620 MIDDLE RD 2017-07-19 23:22:17.250 DOMESTIC DISTURBANCE
17-0703654 17-08313 2505 PRINCE ST 2017-07-19 23:14:29.263 ACCIDENT - PROPERTY DAMAGE
17-0703652 17-08314 2101 TYLER ST 2017-07-19 22:53:08.180 DOMESTIC DISTURBANCE
17-0703651 3040 WESTOVER DR 2017-07-19 22:48:32.773 SHOTS FIRED
17-0703650 2101 COLLEGE AV 2017-07-19 22:43:20.747 TRAFFIC LIGHT PROBLEM
17-0703649 1105 PRAIRIE ST 2017-07-19 22:40:18.720 ATTEMPT TO CONTACT
17-0703648 2017-07-19 22:36:54.933 UNAUTHORIZED USE OF MOTOR VEHICLE
17-0703646 120 S HARKRIDER DR 2017-07-19 22:33:47.567 SUSPICIOUS VEHICLE
17-0703644 2101 COLLEGE AV 2017-07-19 22:20:13.443 TRAFFIC LIGHT PROBLEM
17-0703641 1839 TYLER ST 2017-07-19 22:04:20.930 CITIZEN ASSIST
17-0703640 400 WILLOW ST 2017-07-19 21:57:59.617 DISCHARGING FIREWORKS
17-0703639 375 E OAK ST 2017-07-19 21:49:27.410 CHECKING VEHICLE
17-0703638 2200 MEADOWLAKE RD 2017-07-19 21:46:45.697 CHECK ON THE WELFARE
17-0703637 20 KINLEY DR 2017-07-19 21:43:41.640 CHECK ON THE WELFARE
17-0703633 201 SKYLINE DR 2017-07-19 21:21:52.153 TRAFFIC PROBLEM-CONTROL
17-0703632 2730 DAVE WARD DR 2017-07-19 21:18:54.460 DOMESTIC DISTURBANCE
17-0703629 327 ANGUS ST 2017-07-19 20:58:49.707 ATTEMPT TO CONTACT
17-0703628 1900 HOGAN LN 2017-07-19 20:46:41.023 SHOTS FIRED
17-0703625 17-08311 1220 MITCHELL ST 2017-07-19 20:40:33.460 BURGLARY
17-0703623 475 ROBINS ST 2017-07-19 20:30:41.893 TRESPASSING
17-0703619 2017-07-19 19:55:03.170 RECOVERED VEHICLE
17-0703618 868 WILLOW ST 2017-07-19 19:42:08.610 ATTEMPT TO CONTACT
17-0703616 855 SALEM RD 2017-07-19 19:17:08.310 ENDANGERING WELFARE OF MINOR
17-0703614 17-08309 135 SOUTHERLAND RD 2017-07-19 18:48:29.783 INTERFERENCE WITH CUSTODY
17-0703613 135 SOUTHERLAND RD 2017-07-19 18:44:31.960 ATTEMPT TO CONTACT
17-0703611 17-08308 855 SALEM RD 2017-07-19 18:35:30.707 ACCIDENT - PRIVATE PROPERTY
17-0703610 1400 COLLEGE AV 2017-07-19 18:30:21.503 CHECKING PERSON
17-0703609 17-08307 1306 S DONAGHEY AV 2017-07-19 18:22:35.293 ACCIDENT - PRIVATE PROPERTY
17-0703608 1018 FAULKNER ST 2017-07-19 18:21:28.587 HARASSMENT
17-0703607 135 SOUTHERLAND RD 2017-07-19 18:13:16.083 CHECK ON THE WELFARE
17-0703605 3115 PEBBLE BEACH DR 2017-07-19 18:03:26.060 THEFT OF VEHICLE
17-0703604 799 S HOGAN LN 2017-07-19 17:49:17.507 TRAFFIC PROBLEM-CONTROL
17-0703602 17-08310 2619 W MARTIN ST 2017-07-19 17:36:05.520 AGENCY ASSIST
17-0703601 2619 MARTIN ST 2017-07-19 17:35:59.343 ATTEMPT TO CONTACT
17-0703600 1504 PRINCE ST 2017-07-19 17:26:08.610 LOUD NOISE-MUSIC
17-0703598 501 HOGAN LN 2017-07-19 17:14:53.087 STALLED VEHICLE
17-0703597 2901 COLLEGE AV 2017-07-19 17:13:11.877 AGENCY ASSIST
17-0703596 17-08306 831 NUTTERS CHAPEL RD 2017-07-19 16:49:49.663 HARASSING COMMUNICATIONS
17-0703595 401 2ND ST 2017-07-19 16:36:40.170 FOUND PROPERTY
17-0703593 17-08305 2302 COLLEGE AV 2017-07-19 16:13:39.970 PROPERTY DAMAGE
17-0703592 1700 CALDWELL ST 2017-07-19 16:06:44.590 CIVIL MATTER
17-0703591 406 WILLOW ST 2017-07-19 15:53:48.830 DOMESTIC DISTURBANCE
17-0703590 1311 EASTFIELD ST 2017-07-19 15:52:58.000 ATTEMPT TO CONTACT
17-0703589 2000 KEATHLEY DR 2017-07-19 15:49:18.357 DOMESTIC DISTURBANCE
17-0703586 1105 PRAIRIE ST 2017-07-19 15:34:22.430 ATTEMPT TO CONTACT
17-0703585 17-08304 3605 COLLEGE AV 2017-07-19 15:32:28.500 ACCIDENT - PRIVATE PROPERTY
17-0703584 2400 DONAGHEY AV 2017-07-19 15:24:35.920 RECKLESS DRIVER
17-0703583 17-08303 1001 HARKRIDER ST 2017-07-19 15:07:46.327 ACCIDENT - PROPERTY DAMAGE
17-0703582 125 I40EB 2017-07-19 15:03:17.633 RECKLESS DRIVER
17-0703581 1501 WASHINGTON AV 2017-07-19 14:44:40.707 CHECK ON THE WELFARE
17-0703580 17-08302 1100 DEER ST 2017-07-19 14:33:20.343 ACCIDENT - PROPERTY DAMAGE
17-0703579 1526 BOEN ST 2017-07-19 14:29:24.323 HARASSMENT
17-0703578 1100 SKYLINE DR 2017-07-19 14:17:30.847 STALLED VEHICLE
17-0703577 17-08299 776 HARKRIDER ST 2017-07-19 14:10:43.503 ACCIDENT - PROPERTY DAMAGE
17-0703576 17-08301 1000 EAST GERMAN LN 2017-07-19 14:05:56.147 ACCIDENT - PERSONAL INJURY
17-0703575 2140 CALDWELL ST 2017-07-19 14:04:20.337 DOMESTIC DISTURBANCE
17-0703573 17-08300 600 SKYLINE DR 2017-07-19 14:00:14.077 ACCIDENT - PROPERTY DAMAGE
17-0703570 1000 EAST GERMAN LN 2017-07-19 13:57:53.417 ACCIDENT - PROPERTY DAMAGE
17-0703569 3900 DAVE WARD DR 2017-07-19 13:52:49.763 FOUND PROPERTY
17-0703568 20 KINLEY DR 2017-07-19 13:50:52.110 AGENCY ASSIST
17-0703566 145 GRAND FALLS 2017-07-19 13:43:05.233 SUPPLEMENT REPORT CALL
17-0703565 17-08297 5355 CHATEAU DR 2017-07-19 13:42:26.303 ACCIDENT - PROPERTY DAMAGE
17-0703564 355 CHAUCER LN 2017-07-19 13:38:25.083 ALARM
17-0703563 2200 MEADOWLAKE RD 2017-07-19 13:35:08.333 REPOSSESSION
17-0703562 17-08296 1360 TORREYSON ST 2017-07-19 13:30:14.257 THEFT OF PROPERTY
17-0703559 17-08298 1160 HOGAN LN 2017-07-19 13:07:32.977 THEFT OF PROPERTY
17-0703558 37 HALLOUS ST 2017-07-19 13:06:36.030 DOMESTIC DISTURBANCE
17-0703557 320 S ASH ST 2017-07-19 13:06:01.393 SERVING SUBPOENA
17-0703555 3950 DAVE WARD DR 2017-07-19 12:43:06.130 AGENCY ASSIST
17-0703554 1225 WOODSIDE DR 2017-07-19 12:43:05.273 ATTEMPT TO CONTACT
17-0703553 2655 S DONAGHEY AV 2017-07-19 12:34:14.147 SUPPLEMENT REPORT CALL
17-0703550 2400 MARKET PLAZA DR 2017-07-19 12:09:08.160 SUSPICIOUS ACTIVITY
17-0703549 17-08294 1122 VAN RONKLE ST 2017-07-19 12:04:06.973 FRAUD
17-0703548 3430 IRBY DR 2017-07-19 12:03:11.897 ALARM
17-0703547 1105 PRAIRIE ST 2017-07-19 11:57:48.080 FOUND PROPERTY
17-0703545 408 S ASH ST 2017-07-19 11:55:11.087 DOMESTIC DISTURBANCE
17-0703544 2185 COX CV 2017-07-19 11:50:31.383 ANIMAL BITE
17-0703542 17-08293 1601 HOGAN LN 2017-07-19 11:31:30.147 ACCIDENT - PRIVATE PROPERTY
17-0703541 17-08292 815 E OAK ST 2017-07-19 11:23:26.133 THEFT OF PROPERTY
17-0703539 3333 DAVE WARD DR 2017-07-19 11:10:35.813 SUPPLEMENT REPORT CALL
17-0703538 17-08291 1415 E OAK ST 2017-07-19 11:04:42.087 FRAUD
17-0703537 2302 COLLEGE AV 2017-07-19 11:04:40.677 ATTEMPT TO CONTACT
17-0703535 6 WESTIN CIR 2017-07-19 10:52:41.360 ALARM
17-0703534 2505 PRINCE ST 2017-07-19 10:50:13.667 ATTEMPT TO CONTACT
17-0703532 250 HARKRIDER ST 2017-07-19 10:33:56.660 CHECKING PERSON
17-0703531 17-08290 1224 JERSEY ST 2017-07-19 10:30:44.843 ATTEMPT TO CONTACT
17-0703528 17-08289 1685 AMELIA DR 2017-07-19 10:12:45.943 BATTERY REPORT
17-0703524 400 INGRAM ST 2017-07-19 10:04:31.267 CHECKING PERSON
17-0703523 16 RICHLAND HILLS DR 2017-07-19 09:42:02.557 ALARM
17-0703521 1875 OTT MEMORIAL BLVD 2017-07-19 09:34:07.943 DOMESTIC DISTURBANCE
17-0703519 2840 DAVE WARD DR 2017-07-19 09:32:57.963 CIVIL STAND BY
17-0703517 17-08286 620 CHESTNUT ST 2017-07-19 09:26:30.150 FRAUD
17-0703516 1685 AMELIA DR 2017-07-19 09:23:14.623 ATTEMPT TO CONTACT
17-0703512 4540 PRINCE ST 2017-07-19 09:15:00.267 CHECKING PERSON
17-0703508 1001 MCNUTT RD 2017-07-19 09:00:02.640 CITIZEN ASSIST
17-0703507 3629 OLD MORRILTON HWY 2017-07-19 08:54:21.333 CIVIL MATTER
17-0703505 1405 S DONAGHEY AV 2017-07-19 08:50:18.600 FOUND PROPERTY
17-0703504 32 COVEWOOD DR 2017-07-19 08:47:50.040 DISTURBANCE
17-0703502 1102 OLD MORRILTON HWY 2017-07-19 08:43:55.220 ACCIDENT - PROPERTY DAMAGE
17-0703501 17-08284 145 GRAND FALLS 2017-07-19 08:38:51.590 BURGLARY
17-0703496 3800 DAVE WARD DR 2017-07-19 08:06:47.643 ALARM
17-0703492 2017-07-19 07:26:47.770 ACCIDENT - PROPERTY DAMAGE
17-0703491 3340 TURF LN 2017-07-19 07:24:04.767 CIVIL STAND BY
17-0703490 621 OAK ST 2017-07-19 07:18:50.060 911 HANGUP CALL
17-0703489 17-08283 2217 LEE AV 2017-07-19 07:11:16.510 ATTEMPT TO CONTACT
17-0703488 1 CONWAY TOWNE CENTRE DR 2017-07-19 06:57:02.903 CHECKING VEHICLE
17-0703487 3202 PRINCE ST 2017-07-19 05:48:53.477 CHECK ON THE WELFARE
17-0703485 17-08281 3100 IRBY DR 2017-07-19 04:47:06.380 THEFT OF PROPERTY
17-0703484 955 SOUTH GERMAN LN 2017-07-19 03:42:01.590 DOMESTIC DISTURBANCE
17-0703482 5150 JOHN W. ALLISON RD 2017-07-19 03:01:55.900 ALARM
17-0703480 1001 MCNUTT RD 2017-07-19 00:54:49.303 DOMESTIC DISTURBANCE
17-0703479 17-08279 1655 DAVE WARD DR 2017-07-19 00:54:26.117 SHOPLIFTING
17-0703477 835 S DONAGHEY AV 2017-07-19 00:07:11.157 VEHICLE TOW
17-0703476 17-08278 2840 DAVE WARD DR 2017-07-19 00:05:19.730 THEFT OF SERVICES
17-0703475 4935 ABBEY GAIL DR 2017-07-19 00:01:45.720 REPOSSESSION
17-0703474 1601 HOGAN LN 2017-07-19 00:00:12.187 REPOSSESSION
17-0703473 10 LOWER RIDGE RD 2017-07-18 23:54:31.323 CHECKING VEHICLE
17-0703472 25 ELDERBERRY LN 2017-07-18 23:53:24.417 CHECK ON THE WELFARE
17-0703471 835 S DONAGHEY AV 2017-07-18 23:42:40.740 VEHICLE TOW
17-0703470 11 SMOKING OAK RD 2017-07-18 23:38:09.907 SUSPICIOUS ACTIVITY
17-0703469 1775 OLD MORRILTON HWY 2017-07-18 23:30:22.933 DOMESTIC DISTURBANCE
17-0703468 1371 COLLEGE AV 2017-07-18 23:20:53.163 911 HANGUP CALL
17-0703467 17-08277 721 4TH AV 2017-07-18 23:11:14.513 CRIMINAL MISCHIEF
17-0703466 1 CADRON SETTLEMENT PARK RD 2017-07-18 23:04:37.797 CHECKING BUILDING
17-0703465 814 E OAK ST 2017-07-18 22:58:24.533 ALARM
17-0703464 2211 WEST ST 2017-07-18 22:56:35.310 REPOSSESSION
17-0703463 2455 WASHINGTON AV 2017-07-18 22:50:52.920 CHECKING VEHICLE
17-0703462 670 HUNTINGTON LN 2017-07-18 22:47:31.580 CRIMINAL MISCHIEF
17-0703461 835 S DONAGHEY AV 2017-07-18 22:41:18.187 VEHICLE TOW
17-0703460 17-08276 420 OAK ST 2017-07-18 22:23:08.787 ACCIDENT - PROPERTY DAMAGE
17-0703459 17-08275 300 S DONAGHEY AV 2017-07-18 22:05:46.643 ACCIDENT - PRIVATE PROPERTY
17-0703455 1305 JOSIE REA ST 2017-07-18 21:34:48.720 BURGLARY
17-0703454 2051 HARKRIDER ST 2017-07-18 21:19:01.040 DOMESTIC DISTURBANCE
17-0703453 317 OAK ST 2017-07-18 21:13:21.677 SUSPICIOUS PERSON
17-0703452 1000 EAST GERMAN LN 2017-07-18 20:54:55.657 TRAFFIC LIGHT PROBLEM
17-0703451 17-08274 1310 CLIFTON ST 2017-07-18 20:49:59.883 ATTEMPT TO CONTACT
17-0703450 1302 GUERNSEY DR 2017-07-18 20:32:40.537 HARASSING COMMUNICATIONS
17-0703447 1916 LEE AV 2017-07-18 20:00:58.783 CIVIL STAND BY
17-0703446 875 SKYLINE DR 2017-07-18 19:55:28.760 CHECK ON THE WELFARE
17-0703445 3200 DAVE WARD DR 2017-07-18 19:45:53.490 TRAFFIC LIGHT PROBLEM
17-0703444 4675 OLD MORRILTON HWY 2017-07-18 19:44:24.563 SUSPICIOUS PERSON
17-0703442 801 SOUTH GERMAN LN 2017-07-18 19:36:43.720 FELONY WARRANT SERVICE
17-0703439 1155 DAVE WARD DR 2017-07-18 19:21:08.947 RECKLESS DRIVER
17-0703438 101 OAK ST 2017-07-18 19:21:07.857 ATTEMPT TO CONTACT
17-0703437 17-08273 1300 COLLIER DR 2017-07-18 19:02:22.847 LOST-STOLEN LICENSE PLATE
17-0703436 10 LOWER RIDGE RD 2017-07-18 19:00:26.203 STALLED VEHICLE
17-0703433 134 SHAMROCK DR 2017-07-18 18:31:16.990 SERVING SUBPOENA
17-0703432 1835 OTT MEMORIAL BLVD 2017-07-18 18:19:29.967 SERVING SUBPOENA
17-0703429 1191 STURGIS RD 2017-07-18 17:32:13.060 ALARM
17-0703427 1310 CLIFTON ST 2017-07-18 17:30:38.243 ATTEMPT TO CONTACT
17-0703426 2080 BROADVIEW AV 2017-07-18 17:22:16.597 DISTURBANCE
17-0703425 1305 E OAK ST 2017-07-18 17:20:44.000 SUPPLEMENT REPORT CALL
17-0703424 135 SOUTHERLAND RD 2017-07-18 17:18:15.250 INTERFERENCE WITH CUSTODY
17-0703421 1605 E OAK ST 2017-07-18 16:59:07.537 ALARM
17-0703419 1201 OLD MORRILTON HWY 2017-07-18 16:50:33.190 STALLED VEHICLE
17-0703414 17-08272 3125 PEBBLE BEACH DR 2017-07-18 16:15:51.970 LOST-STOLEN LICENSE PLATE
17-0703413 1601 HOGAN LN 2017-07-18 16:14:43.853 ACCIDENT - PRIVATE PROPERTY
17-0703410 FAULKNER ST 2017-07-18 16:13:13.960 SUSPICIOUS ACTIVITY
17-0703409 1405 S DONAGHEY AV 2017-07-18 16:06:59.843 HARASSMENT
17-0703408 1000 EAST GERMAN LN 2017-07-18 16:06:49.603 STALLED VEHICLE
17-0703407 301 DONAGHEY AV 2017-07-18 16:02:19.780 FOUND PROPERTY
17-0703405 1405 S DONAGHEY AV 2017-07-18 15:50:31.320 CHECK ON THE WELFARE
17-0703404 825 OAK ST 2017-07-18 15:42:09.420 DOMESTIC DISTURBANCE
17-0703402 1845 TERESA DR 2017-07-18 15:31:47.780 SERVING SUBPOENA
17-0703396 127 I40EB 2017-07-18 15:08:47.103 AGENCY ASSIST
17-0703391 17-08269 1321 BRUCE ST 2017-07-18 14:56:35.980 ATTEMPT TO CONTACT
17-0703389 800 ROBINS ST 2017-07-18 14:49:34.273 TRESPASSING
17-0703388 17-08268 600 SKYLINE DR 2017-07-18 14:42:30.180 ACCIDENT - PROPERTY DAMAGE
17-0703386 300 S DONAGHEY AV 2017-07-18 14:28:37.607 DISTURBANCE
17-0703385 17-08271 145 GRAND FALLS 2017-07-18 14:26:35.697 BURGLARY
17-0703379 3034 DONNELL RIDGE RD 2017-07-18 13:48:04.960 VEHICLE TOW
17-0703377 130 6TH ST 2017-07-18 13:44:07.793 TERRORISTIC THREATENING
17-0703374 17-08265 245 OAK ST 2017-07-18 13:12:34.527 SHOPLIFTING
17-0703370 17-08266 1110 E OAK ST 2017-07-18 12:38:41.363 FRAUD
17-0703369 17-08262 3900 DAVE WARD DR 2017-07-18 12:34:53.220 ACCIDENT - PRIVATE PROPERTY
17-0703368 2302 COLLEGE AV 2017-07-18 12:28:48.090 SUPPLEMENT REPORT CALL
17-0703367 17-08263 710 S HARKRIDER DR 2017-07-18 12:26:07.800 RECOVERED VEHICLE
17-0703365 17-08264 475 ROBINS ST 2017-07-18 12:16:51.523 ATTEMPT TO CONTACT
17-0703364 1500 HARKRIDER ST 2017-07-18 12:10:54.310 ROAD RAGE
17-0703363 17-08261 3333 DAVE WARD DR 2017-07-18 12:00:33.827 LOST PROPERTY
17-0703362 17-08259 10 TRAFALGAR RD 2017-07-18 11:59:27.023 THEFT OF PROPERTY
17-0703361 17-08260 450 E DAVE WARD DR 2017-07-18 11:56:48.050 ACCIDENT - PERSONAL INJURY
17-0703360 600 SOUTH GERMAN LN 2017-07-18 11:53:13.853 MISDEMEANOR WARRANT SERVICE
17-0703359 320 CASTLEGATE DR 2017-07-18 11:52:20.830 ALARM
17-0703358 801 HOGAN LN 2017-07-18 11:41:50.500 ROAD RAGE
17-0703356 17-08258 1090 COLLIER DR 2017-07-18 11:33:04.630 BREAKING OR ENTERING
17-0703353 1205 SUMMER CIR 2017-07-18 11:27:59.350 ATTEMPT TO CONTACT
17-0703350 205 GRAND FALLS 2017-07-18 11:19:32.330 SUPPLEMENT REPORT CALL
17-0703349 17-08257 2505 PRINCE ST 2017-07-18 11:10:20.977 ACCIDENT - PROPERTY DAMAGE
17-0703347 1701 HARKRIDER ST 2017-07-18 10:59:06.943 CHECK ON THE WELFARE
17-0703345 1553 WASHINGTON AV 2017-07-18 10:53:34.813 STALLED VEHICLE
17-0703344 1245 ADDY BROOK ST 2017-07-18 10:52:39.170 ATTEMPT TO CONTACT
17-0703334 1245 ADDY BROOK ST 2017-07-18 10:30:44.507 ATTEMPT TO CONTACT
17-0703333 1500 MUSEUM RD 2017-07-18 10:25:11.057 AGENCY ASSIST
17-0703332 475 ROBINS ST 2017-07-18 10:23:10.830 ATTEMPT TO CONTACT
17-0703331 101 PADGETT RD 2017-07-18 10:22:42.193 CHECKING VEHICLE
17-0703330 2205 ARKANSAS AV 2017-07-18 10:19:21.007 HARASSMENT
17-0703327 2850 PRINCE ST 2017-07-18 10:16:32.067 ATTEMPT TO CONTACT
17-0703326 135 SOUTHERLAND RD 2017-07-18 10:13:51.790 HARASSMENT
17-0703324 17-08256 600 SKYLINE DR 2017-07-18 10:11:19.163 ACCIDENT - PROPERTY DAMAGE
17-0703323 1110 E OAK ST 2017-07-18 10:09:55.763 SUPPLEMENT REPORT CALL
17-0703312 2110 WILMINGTON DR 2017-07-18 09:34:37.350 CIVIL STAND BY
17-0703310 17-08253 2370 SANDERS ST 2017-07-18 09:27:53.407 BREAKING OR ENTERING
17-0703307 17-08255 3315 PEBBLE BEACH DR 2017-07-18 09:23:44.213 LOST-STOLEN LICENSE PLATE
17-0703298 1310 E DAVE WARD DR 2017-07-18 07:57:08.547 ALARM
17-0703295 17-08250 1525 CLIFTON ST 2017-07-18 07:39:31.150 BREAKING OR ENTERING
17-0703293 17-08249 1601 S DONAGHEY AV 2017-07-18 07:18:17.453 CRIMINAL MISCHIEF
17-0703292 419 S ASH ST 2017-07-18 07:17:31.083 ALARM - HOLD UP or PANIC
17-0703291 1425 ROBINS ST 2017-07-18 07:09:19.537 SUPPLEMENT REPORT CALL
17-0703290 1510 MILL ST 2017-07-18 06:38:27.680 ALARM
17-0703289 17-08247 1425 ROBINS ST 2017-07-18 06:18:33.517 ROBBERY
17-0703288 1000 COUNTRY CLUB RD 2017-07-18 05:28:05.597 SUSPICIOUS VEHICLE
17-0703287 1125 MORNINGSIDE DR 2017-07-18 05:15:04.633 CHECKING PERSON
17-0703283 1250 FACTORY ST 2017-07-18 02:47:47.693 CHECKING VEHICLE
17-0703282 138 EVE LN 2017-07-18 02:37:49.647 BARKING DOG COMPLAINT
17-0703280 2235 E OAK ST 2017-07-18 01:58:13.087 ALARM
17-0703276 150 S HOGAN LN 2017-07-18 00:17:01.140 CHECKING VEHICLE
17-0703275 835 S DONAGHEY AV 2017-07-18 00:15:34.297 VEHICLE TOW
17-0703274 17-08246 2302 COLLEGE AV 2017-07-17 23:41:01.937 DISTURBANCE
17-0703273 1 CADRON SETTLEMENT PARK RD 2017-07-17 23:20:16.217 CHECKING BUILDING
17-0703272 17-08245 5310 LOVETTE CV 2017-07-17 22:32:41.217 CRIMINAL MISCHIEF
17-0703270 1201 BRUCE ST 2017-07-17 22:11:10.007 STALLED VEHICLE
17-0703267 1820 LUCILLE ST 2017-07-17 21:57:24.620 FOUND PROPERTY
17-0703266 17-08243 3800 DAVE WARD DR 2017-07-17 21:55:27.093 INTOXICATED DRIVER
17-0703265 1105 PRAIRIE ST 2017-07-17 21:54:14.623 ATTEMPT TO CONTACT
17-0703262 1100 INGRAM ST 2017-07-17 21:41:12.483 STALLED VEHICLE
17-0703261 831 NUTTERS CHAPEL RD 2017-07-17 21:39:06.070 TERRORISTIC THREATENING
17-0703258 1750 E OAK ST 2017-07-17 20:51:16.883 ALARM
17-0703257 2995 BILLY JACK DR 2017-07-17 20:43:07.557 SUPPLEMENT REPORT CALL
17-0703255 20 KINLEY DR 2017-07-17 20:33:58.067 ENDANGERING WELFARE OF MINOR
17-0703253 1839 TYLER ST 2017-07-17 20:26:23.750 BURGLARY
17-0703250 1600 E OAK ST 2017-07-17 19:56:32.837 CHECK ON THE WELFARE
17-0703248 17-08241 2995 BILLY JACK DR 2017-07-17 19:49:30.487 HARASSING COMMUNICATIONS
17-0703247 2540 GLADIOLA 2017-07-17 19:29:35.197 ALARM
17-0703245 17-08240 901 E OAK ST 2017-07-17 19:21:03.180 ACCIDENT - PERSONAL INJURY
17-0703244 1155 SKYLINE DR 2017-07-17 19:10:52.417 SUPPLEMENT REPORT CALL
17-0703243 1302 GUERNSEY DR 2017-07-17 19:08:04.513 DOMESTIC DISTURBANCE
17-0703242 17-08239 201 SKYLINE DR 2017-07-17 19:07:52.540 THEFT OF PROPERTY
17-0703241 207 WILLOW ST 2017-07-17 19:04:17.433 TERRORISTIC THREATENING
17-0703240 56 MEADOWBROOK DR 2017-07-17 18:57:57.303 AGENCY ASSIST
17-0703238 17-08237 2850 PRINCE ST 2017-07-17 18:38:58.883 THEFT OF PROPERTY
17-0703237 17-08238 2164 HARKRIDER ST 2017-07-17 18:34:30.707 CIVIL MATTER
17-0703235 1581 S SALEM RD 2017-07-17 18:17:50.510 ALARM
17-0703234 1115 E OAK ST 2017-07-17 18:07:49.480 LOST CHILD-FOUND CHILD
17-0703233 1155 SKYLINE DR 2017-07-17 18:07:17.060 ACCIDENT - PROPERTY DAMAGE
17-0703232 17-08234 2101 HARKRIDER ST 2017-07-17 18:06:19.980 ACCIDENT - PROPERTY DAMAGE
17-0703231 17-08235 5250 BROWNING DR 2017-07-17 18:01:26.283 BURGLARY
17-0703228 17-08236 1600 CENTENNIAL CLUB DR 2017-07-17 17:48:34.760 SUSPICIOUS ACTIVITY
17-0703226 2080 BROADVIEW AV 2017-07-17 17:31:15.333 UNKNOWN TROUBLE
17-0703225 814 E OAK ST 2017-07-17 17:10:37.433 REPOSSESSION
17-0703222 412 DURHAM ST 2017-07-17 16:56:28.737 DOMESTIC DISTURBANCE
17-0703221 17-08232 911 S HARKRIDER DR 2017-07-17 16:54:14.010 ACCIDENT - PROPERTY DAMAGE
17-0703219 3001 IRBY DR 2017-07-17 16:41:42.113 CHECKING VEHICLE
17-0703217 17-08231 1 CADRON SETTLEMENT PARK RD 2017-07-17 16:36:48.953 ATTEMPT TO CONTACT
17-0703216 3850 TYLER ST 2017-07-17 16:28:26.717 ATTEMPT TO CONTACT
17-0703215 1115 PARKWAY ST 2017-07-17 16:22:09.907 FRAUD
17-0703214 3130 PEBBLE BEACH DR 2017-07-17 16:20:05.400 CIVIL MATTER
17-0703211 2219 WASHINGTON AV 2017-07-17 16:13:24.930 ALARM
17-0703209 1710 S AMITY RD 2017-07-17 16:03:35.240 ALARM
17-0703207 600 SOUTH GERMAN LN 2017-07-17 15:42:06.040 SHOTS FIRED
17-0703206 475 ROBINS ST 2017-07-17 15:41:03.170 FOUND PROPERTY
17-0703200 17-08229 2840 DAVE WARD DR 2017-07-17 15:05:39.370 BURGLARY
17-0703198 475 ROBINS ST 2017-07-17 14:34:56.013 SUSPICIOUS ACTIVITY
17-0703197 17-08228 945 S AMITY RD 2017-07-17 14:28:16.147 BREAKING OR ENTERING
17-0703196 1825 E OAK ST 2017-07-17 14:25:03.950 ALARM - HOLD UP or PANIC
17-0703195 1001 FRONT ST 2017-07-17 14:21:26.313 SUPPLEMENT REPORT CALL
17-0703194 100 BROOKSIDE DR 2017-07-17 14:17:08.857 DISTURBANCE
17-0703193 1 CONWAY TOWNE CENTRE DR 2017-07-17 14:16:30.440 TRESPASSING
17-0703189 800 SOUTH GERMAN LN 2017-07-17 13:56:16.073 ATTEMPT TO CONTACT
17-0703185 1150 NEAL ST 2017-07-17 13:33:28.977 SUPPLEMENT REPORT CALL
17-0703184 4650 THOMPSON ST 2017-07-17 13:15:01.977 REPOSSESSION
17-0703182 17-08227 1745 OLD MORRILTON HWY 2017-07-17 12:59:36.887 ACCIDENT - PROPERTY DAMAGE
17-0703181 1890 VILLAGE COMMONS DR 2017-07-17 12:48:04.033 CHECK ON THE WELFARE
17-0703179 2017-07-17 12:35:20.377 SUPPLEMENT REPORT CALL
17-0703178 2501 DAVE WARD DR 2017-07-17 12:30:26.563 RECKLESS DRIVER
17-0703177 17-08225 2105 DAVE WARD DR 2017-07-17 12:21:18.013 FRAUD
17-0703176 17-08224 2925 PRINCE ST 2017-07-17 12:00:01.010 FRAUD
17-0703173 17-08223 1000 EAST GERMAN LN 2017-07-17 11:47:43.233 ACCIDENT - PROPERTY DAMAGE
17-0703171 17-08222 1110 E OAK ST 2017-07-17 11:22:44.640 FRAUD
17-0703170 475 ROBINS ST 2017-07-17 11:19:17.290 SUPPLEMENT REPORT CALL
17-0703164 2505 W SIMMS ST 2017-07-17 10:40:42.517 SUPPLEMENT REPORT CALL
17-0703163 17-08219 3055 ROBERT OTT CIR 2017-07-17 10:33:37.713 CIVIL MATTER
17-0703162 17-08221 711 FRONT ST 2017-07-17 10:28:28.430 TERRORISTIC THREATENING
17-0703159 17-08218 1325 OLD MORRILTON HWY 2017-07-17 10:10:50.897 ACCIDENT - HIT AND RUN
17-0703158 9 KINGSPARK LN 2017-07-17 10:07:30.827 SUPPLEMENT REPORT CALL
17-0703157 17-08216 329 BRUCE ST 2017-07-17 10:07:22.457 THEFT OF PROPERTY
17-0703155 17-08215 1135 SALEM RD 2017-07-17 09:57:32.570 ACCIDENT - PROPERTY DAMAGE
17-0703153 420 2ND ST 2017-07-17 09:45:08.430 CIVIL MATTER
17-0703152 17-08214 2660 OLD MORRILTON HWY 2017-07-17 09:44:50.160 ABANDONED VEHICLE
17-0703151 17-08217 420 2ND ST 2017-07-17 09:44:11.390 BREAKING OR ENTERING
17-0703138 390 STANLEY RUSS RD 2017-07-17 08:54:40.483 CHECK ON THE WELFARE
17-0703135 1440 DAVE WARD DR 2017-07-17 08:21:44.430 FOUND PROPERTY
17-0703129 17-08213 150 SKYLINE DR 2017-07-17 07:14:20.637 ACCIDENT - PROPERTY DAMAGE
17-0703127 2510 PRINCE ST 2017-07-17 05:34:51.833 ALARM - HOLD UP or PANIC
17-0703126 1750 VILLAGE COMMONS DR 2017-07-17 05:27:29.613 REPOSSESSION
17-0703124 7 SHADY VALLEY DR 2017-07-17 04:12:51.550 BURGLARY
17-0703122 1900 HUTTO ST 2017-07-17 04:05:26.323 CHECK ON THE WELFARE
17-0703120 500 AMITY RD 2017-07-17 02:45:16.737 CITIZEN ASSIST
17-0703117 17-08212 1150 NEAL ST 2017-07-17 01:54:24.563 BATTERY REPORT
17-0703116 1440 PYRAMID DR 2017-07-17 01:40:30.943 LOUD NOISE-MUSIC
17-0703112 1155 SKYLINE DR 2017-07-17 00:51:51.913 CHECKING PERSON
17-0703109 3430 IRBY DR 2017-07-17 00:36:58.727 LOUD NOISE-MUSIC
17-0703106 10 ELDON STARR LN 2017-07-17 00:02:30.513 ALARM
Call Number Case Number Address Call Time Incident Type

General Contacts

POLICE HEADQUARTERS
1105 Prairie Street
Conway, AR 72032

Conway Police Department


  911 (EMERGENCIES ONLY)

  501.450.6120 (non-emergency)

ANONYMOUS TIPS
 Leave a message at 501.450.6135
 Text CONWAY and your tip to 274637 (CRIMES) Click for an Example

   

City of Conway

We, the members of the Conway Police Department, are committed to protecting and serving the citizens of Conway, Arkansas. That is our highest calling, as we pledge to join hands with others in carrying out our sworn duty to uphold the law.

Chief Jody Spradlin

Latest Tweets